Wetterdaten: Dienstag, 01.09.2009
Datum Zeit Temp. Innen Temp. Aussen UV X Diff Temp. Feuchte Inne Feuchte Auss Sonnenschein Luftdruck Regen ab 0,1 Wind Sonnenschein Windben
01.09.2009 00:00 23,4 C 19,6 C 0,0 UV-I 0,0 C 47 % 54 % 0 % 1011,6 hPa 0,0 l/m 1,4 km/h (1 Bft) 0 min 4,1 km/h (1 Bft)
01.09.2009 00:02 23,4 C 19,5 C 0,0 UV-I 0,0 C 47 % 54 % 0 % 1011,6 hPa 0,0 l/m 1,4 km/h (1 Bft) 0 min 4,1 km/h (1 Bft)
01.09.2009 00:04 23,4 C 19,5 C 0,0 UV-I 0,0 C 47 % 54 % 0 % 1011,6 hPa 0,0 l/m 1,4 km/h (1 Bft) 0 min 2,9 km/h (1 Bft)
01.09.2009 00:08 23,4 C 19,5 C 0,0 UV-I 0,0 C 46 % 54 % 0 % 1011,6 hPa 0,0 l/m 1,4 km/h (1 Bft) 0 min 2,9 km/h (1 Bft)
01.09.2009 00:10 23,4 C 19,4 C 0,0 UV-I 0,0 C 46 % 54 % 0 % 1011,6 hPa 0,0 l/m 1,7 km/h (1 Bft) 0 min 7,0 km/h (2 Bft)
01.09.2009 00:12 23,4 C 19,3 C 0,0 UV-I 0,0 C 46 % 54 % 0 % 1011,6 hPa 0,0 l/m 1,4 km/h (1 Bft) 0 min 7,0 km/h (2 Bft)
01.09.2009 00:14 23,4 C 19,3 C 0,0 UV-I 0,0 C 46 % 54 % 0 % 1011,6 hPa 0,0 l/m 1,4 km/h (1 Bft) 0 min 0,0 km/h (0 Bft)
01.09.2009 00:16 23,2 C 19,3 C 0,0 UV-I 0,0 C 46 % 54 % 0 % 1011,3 hPa 0,0 l/m 1,0 km/h (0 Bft) 0 min 0,0 km/h (0 Bft)
01.09.2009 00:18 23,2 C 19,2 C 0,0 UV-I 0,0 C 46 % 55 % 0 % 1011,3 hPa 0,0 l/m 1,0 km/h (0 Bft) 0 min 0,0 km/h (0 Bft)
01.09.2009 00:20 23,2 C 19,3 C 0,0 UV-I 0,0 C 46 % 55 % 0 % 1011,3 hPa 0,0 l/m 0,7 km/h (0 Bft) 0 min 0,0 km/h (0 Bft)
01.09.2009 00:22 23,2 C 19,2 C 0,0 UV-I 0,0 C 46 % 55 % 0 % 1011,3 hPa 0,0 l/m 0,5 km/h (0 Bft) 0 min 0,0 km/h (0 Bft)
01.09.2009 00:24 23,3 C 19,2 C 0,0 UV-I 0,0 C 47 % 55 % 0 % 1011,3 hPa 0,0 l/m 0,2 km/h (0 Bft) 0 min 0,0 km/h (0 Bft)
01.09.2009 00:26 23,2 C 19,1 C 0,0 UV-I 0,0 C 46 % 55 % 0 % 1011,3 hPa 0,0 l/m 0,2 km/h (0 Bft) 0 min 2,4 km/h (1 Bft)
01.09.2009 00:28 23,2 C 19,1 C 0,0 UV-I 0,0 C 46 % 55 % 0 % 1011,3 hPa 0,0 l/m 0,2 km/h (0 Bft) 0 min 2,4 km/h (1 Bft)
01.09.2009 00:30 23,3 C 19,0 C 0,0 UV-I 0,0 C 47 % 55 % 0 % 1011,3 hPa 0,0 l/m 0,2 km/h (0 Bft) 0 min 0,0 km/h (0 Bft)
01.09.2009 00:32 23,3 C 19,1 C 0,0 UV-I 0,0 C 47 % 55 % 0 % 1011,3 hPa 0,0 l/m 0,2 km/h (0 Bft) 0 min 0,0 km/h (0 Bft)
01.09.2009 00:34 23,3 C 19,1 C 0,0 UV-I 0,0 C 47 % 55 % 0 % 1011,3 hPa 0,0 l/m 0,2 km/h (0 Bft) 0 min 0,0 km/h (0 Bft)
01.09.2009 00:36 23,2 C 18,9 C 0,0 UV-I 0,0 C 47 % 55 % 0 % 1011,2 hPa 0,0 l/m 0,2 km/h (0 Bft) 0 min 0,0 km/h (0 Bft)
01.09.2009 00:38 23,2 C 18,9 C 0,0 UV-I 0,0 C 47 % 55 % 0 % 1011,2 hPa 0,0 l/m 0,2 km/h (0 Bft) 0 min 0,0 km/h (0 Bft)
01.09.2009 00:40 23,2 C 18,9 C 0,0 UV-I 0,0 C 47 % 55 % 0 % 1011,2 hPa 0,0 l/m 0,5 km/h (0 Bft) 0 min 7,2 km/h (2 Bft)
01.09.2009 00:42 23,2 C 18,9 C 0,0 UV-I 0,0 C 47 % 55 % 0 % 1011,2 hPa 0,0 l/m 1,0 km/h (0 Bft) 0 min 7,2 km/h (2 Bft)
01.09.2009 00:44 23,2 C 18,8 C 0,0 UV-I 0,0 C 46 % 56 % 0 % 1011,2 hPa 0,0 l/m 1,2 km/h (1 Bft) 0 min 5,5 km/h (1 Bft)
01.09.2009 00:46 23,2 C 18,8 C 0,0 UV-I 0,0 C 46 % 56 % 0 % 1011,2 hPa 0,0 l/m 1,4 km/h (1 Bft) 0 min 3,1 km/h (1 Bft)
01.09.2009 00:48 23,2 C 18,9 C 0,0 UV-I 0,0 C 46 % 56 % 0 % 1011,2 hPa 0,0 l/m 1,7 km/h (1 Bft) 0 min 3,1 km/h (1 Bft)
01.09.2009 00:50 23,2 C 18,8 C 0,0 UV-I 0,0 C 46 % 56 % 0 % 1011,2 hPa 0,0 l/m 1,9 km/h (1 Bft) 0 min 3,4 km/h (1 Bft)
01.09.2009 00:52 23,2 C 18,8 C 0,0 UV-I 0,0 C 46 % 56 % 0 % 1011,2 hPa 0,0 l/m 1,4 km/h (1 Bft) 0 min 5,3 km/h (1 Bft)
01.09.2009 00:54 23,2 C 18,7 C 0,0 UV-I 0,0 C 46 % 56 % 0 % 1011,2 hPa 0,0 l/m 1,9 km/h (1 Bft) 0 min 8,2 km/h (2 Bft)
01.09.2009 00:56 23,2 C 18,7 C 0,0 UV-I 0,0 C 46 % 56 % 0 % 1011,2 hPa 0,0 l/m 2,2 km/h (1 Bft) 0 min 8,2 km/h (2 Bft)
01.09.2009 00:58 23,2 C 18,7 C 0,0 UV-I 0,0 C 46 % 56 % 0 % 1011,2 hPa 0,0 l/m 2,4 km/h (1 Bft) 0 min 4,1 km/h (1 Bft)
01.09.2009 01:02 23,2 C 18,7 C 0,0 UV-I 0,0 C 46 % 56 % 0 % 1011,2 hPa 0,0 l/m 2,4 km/h (1 Bft) 0 min 9,6 km/h (2 Bft)
01.09.2009 01:04 23,1 C 18,6 C 0,0 UV-I 0,0 C 46 % 56 % 0 % 1011,2 hPa 0,0 l/m 1,7 km/h (1 Bft) 0 min 3,1 km/h (1 Bft)
01.09.2009 01:06 23,1 C 18,7 C 0,0 UV-I 0,0 C 46 % 56 % 0 % 1011,2 hPa 0,0 l/m 1,2 km/h (1 Bft) 0 min 0,0 km/h (0 Bft)
01.09.2009 01:08 23,1 C 18,6 C 0,0 UV-I 0,0 C 47 % 56 % 0 % 1011,2 hPa 0,0 l/m 0,7 km/h (0 Bft) 0 min 2,6 km/h (1 Bft)
01.09.2009 01:10 23,1 C 18,5 C 0,0 UV-I 0,0 C 47 % 56 % 0 % 1011,2 hPa 0,0 l/m 0,5 km/h (0 Bft) 0 min 2,6 km/h (1 Bft)
01.09.2009 01:12 23,1 C 18,5 C 0,0 UV-I 0,0 C 47 % 57 % 0 % 1011,2 hPa 0,0 l/m 0,2 km/h (0 Bft) 0 min 0,0 km/h (0 Bft)
01.09.2009 01:14 23,1 C 18,4 C 0,0 UV-I 0,0 C 47 % 57 % 0 % 1011,2 hPa 0,0 l/m 0,2 km/h (0 Bft) 0 min 2,4 km/h (1 Bft)
01.09.2009 01:16 23,1 C 18,4 C 0,0 UV-I 0,0 C 47 % 57 % 0 % 1011,0 hPa 0,0 l/m 0,2 km/h (0 Bft) 0 min 2,4 km/h (1 Bft)
01.09.2009 01:18 23,1 C 18,5 C 0,0 UV-I 0,0 C 47 % 57 % 0 % 1011,0 hPa 0,0 l/m 0,2 km/h (0 Bft) 0 min 3,1 km/h (1 Bft)
01.09.2009 01:20 23,1 C 18,4 C 0,0 UV-I 0,0 C 47 % 57 % 0 % 1011,0 hPa 0,0 l/m 0,2 km/h (0 Bft) 0 min 3,1 km/h (1 Bft)
01.09.2009 01:22 23,1 C 18,4 C 0,0 UV-I 0,0 C 47 % 57 % 0 % 1011,0 hPa 0,0 l/m 0,2 km/h (0 Bft) 0 min 0,0 km/h (0 Bft)
01.09.2009 01:24 23,1 C 18,3 C 0,0 UV-I 0,0 C 47 % 57 % 0 % 1011,0 hPa 0,0 l/m 0,5 km/h (0 Bft) 0 min 7,5 km/h (2 Bft)
01.09.2009 01:26 23,1 C 18,3 C 0,0 UV-I 0,0 C 47 % 57 % 0 % 1011,0 hPa 0,0 l/m 0,5 km/h (0 Bft) 0 min 7,5 km/h (2 Bft)
01.09.2009 01:28 23,1 C 18,3 C 0,0 UV-I 0,0 C 47 % 57 % 0 % 1011,0 hPa 0,0 l/m 0,5 km/h (0 Bft) 0 min 0,0 km/h (0 Bft)
01.09.2009 01:30 23,1 C 18,2 C 0,0 UV-I 0,0 C 47 % 57 % 0 % 1011,0 hPa 0,0 l/m 0,2 km/h (0 Bft) 0 min 0,0 km/h (0 Bft)
01.09.2009 01:32 23,1 C 18,3 C 0,0 UV-I 0,0 C 47 % 58 % 0 % 1011,0 hPa 0,0 l/m 0,2 km/h (0 Bft) 0 min 0,0 km/h (0 Bft)
01.09.2009 01:34 23,1 C 18,1 C 0,0 UV-I 0,0 C 47 % 58 % 0 % 1011,0 hPa 0,0 l/m 0,2 km/h (0 Bft) 0 min 0,0 km/h (0 Bft)
01.09.2009 01:36 23,1 C 18,1 C 0,0 UV-I 0,0 C 47 % 58 % 0 % 1010,8 hPa 0,0 l/m 0,0 km/h (0 Bft) 0 min 0,0 km/h (0 Bft)
01.09.2009 01:38 23,1 C 18,1 C 0,0 UV-I 0,0 C 47 % 58 % 0 % 1010,8 hPa 0,0 l/m 0,0 km/h (0 Bft) 0 min 0,0 km/h (0 Bft)
01.09.2009 01:40 23,1 C 18,0 C 0,0 UV-I 0,0 C 47 % 58 % 0 % 1010,8 hPa 0,0 l/m 0,0 km/h (0 Bft) 0 min 0,0 km/h (0 Bft)
01.09.2009 01:42 23,1 C 18,0 C 0,0 UV-I 0,0 C 47 % 58 % 0 % 1010,8 hPa 0,0 l/m 0,0 km/h (0 Bft) 0 min 0,0 km/h (0 Bft)
01.09.2009 01:44 23,1 C 18,0 C 0,0 UV-I 0,0 C 47 % 58 % 0 % 1010,8 hPa 0,0 l/m 0,0 km/h (0 Bft) 0 min 0,0 km/h (0 Bft)
01.09.2009 01:46 23,1 C 17,9 C 0,0 UV-I 0,0 C 47 % 58 % 0 % 1010,8 hPa 0,0 l/m 0,0 km/h (0 Bft) 0 min 0,0 km/h (0 Bft)
01.09.2009 01:48 23,1 C 17,9 C 0,0 UV-I 0,0 C 47 % 58 % 0 % 1010,8 hPa 0,0 l/m 0,0 km/h (0 Bft) 0 min 0,0 km/h (0 Bft)
01.09.2009 01:50 23,1 C 17,8 C 0,0 UV-I 0,0 C 47 % 58 % 0 % 1010,8 hPa 0,0 l/m 0,0 km/h (0 Bft) 0 min 0,0 km/h (0 Bft)
01.09.2009 01:52 23,1 C 17,9 C 0,0 UV-I 0,0 C 47 % 58 % 0 % 1010,8 hPa 0,0 l/m 0,0 km/h (0 Bft) 0 min 0,0 km/h (0 Bft)
01.09.2009 01:54 23,1 C 17,8 C 0,0 UV-I 0,0 C 47 % 58 % 0 % 1010,8 hPa 0,0 l/m 0,0 km/h (0 Bft) 0 min 0,0 km/h (0 Bft)
01.09.2009 01:56 23,1 C 17,7 C 0,0 UV-I 0,0 C 47 % 58 % 0 % 1010,3 hPa 0,0 l/m 0,0 km/h (0 Bft) 0 min 0,0 km/h (0 Bft)
01.09.2009 01:58 23,1 C 17,7 C 0,0 UV-I 0,0 C 47 % 58 % 0 % 1010,3 hPa 0,0 l/m 0,0 km/h (0 Bft) 0 min 3,1 km/h (1 Bft)
01.09.2009 02:00 23,1 C 17,7 C 0,0 UV-I 0,0 C 47 % 58 % 0 % 1010,3 hPa 0,0 l/m 0,2 km/h (0 Bft) 0 min 3,1 km/h (1 Bft)
01.09.2009 02:02 23,1 C 17,6 C 0,0 UV-I 0,0 C 47 % 59 % 0 % 1010,3 hPa 0,0 l/m 0,2 km/h (0 Bft) 0 min 0,0 km/h (0 Bft)
01.09.2009 02:04 23,1 C 17,6 C 0,0 UV-I 0,0 C 47 % 59 % 0 % 1010,3 hPa 0,0 l/m 0,2 km/h (0 Bft) 0 min 0,0 km/h (0 Bft)
01.09.2009 02:06 23,1 C 17,6 C 0,0 UV-I 0,0 C 47 % 59 % 0 % 1010,3 hPa 0,0 l/m 0,5 km/h (0 Bft) 0 min 0,0 km/h (0 Bft)
01.09.2009 02:08 23,1 C 17,7 C 0,0 UV-I 0,0 C 47 % 59 % 0 % 1010,3 hPa 0,0 l/m 0,7 km/h (0 Bft) 0 min 0,0 km/h (0 Bft)
01.09.2009 02:10 23,1 C 17,6 C 0,0 UV-I 0,0 C 47 % 59 % 0 % 1010,3 hPa 0,0 l/m 0,5 km/h (0 Bft) 0 min 0,0 km/h (0 Bft)
01.09.2009 02:12 23,1 C 17,6 C 0,0 UV-I 0,0 C 47 % 59 % 0 % 1010,3 hPa 0,0 l/m 0,5 km/h (0 Bft) 0 min 0,0 km/h (0 Bft)
01.09.2009 02:14 23,1 C 17,5 C 0,0 UV-I 0,0 C 47 % 59 % 0 % 1010,3 hPa 0,0 l/m 0,5 km/h (0 Bft) 0 min 0,0 km/h (0 Bft)
01.09.2009 02:16 23,0 C 17,5 C 0,0 UV-I 0,0 C 47 % 59 % 0 % 1010,4 hPa 0,0 l/m 0,0 km/h (0 Bft) 0 min 0,0 km/h (0 Bft)
01.09.2009 02:20 23,0 C 17,4 C 0,0 UV-I 0,0 C 47 % 59 % 0 % 1010,4 hPa 0,0 l/m 0,0 km/h (0 Bft) 0 min 0,0 km/h (0 Bft)
01.09.2009 02:22 23,0 C 17,4 C 0,0 UV-I 0,0 C 47 % 59 % 0 % 1010,4 hPa 0,0 l/m 0,0 km/h (0 Bft) 0 min 0,0 km/h (0 Bft)
01.09.2009 02:24 23,1 C 17,5 C 0,0 UV-I 0,0 C 47 % 59 % 0 % 1010,4 hPa 0,0 l/m 0,0 km/h (0 Bft) 0 min 0,0 km/h (0 Bft)
01.09.2009 02:26 23,0 C 17,4 C 0,0 UV-I 0,0 C 47 % 59 % 0 % 1010,4 hPa 0,0 l/m 0,0 km/h (0 Bft) 0 min 0,0 km/h (0 Bft)
01.09.2009 02:28 23,0 C 17,4 C 0,0 UV-I 0,0 C 47 % 59 % 0 % 1010,4 hPa 0,0 l/m 0,0 km/h (0 Bft) 0 min 0,0 km/h (0 Bft)
01.09.2009 02:30 23,0 C 17,3 C 0,0 UV-I 0,0 C 47 % 59 % 0 % 1010,4 hPa 0,0 l/m 0,0 km/h (0 Bft) 0 min 0,0 km/h (0 Bft)
01.09.2009 02:32 23,0 C 17,3 C 0,0 UV-I 0,0 C 47 % 60 % 0 % 1010,4 hPa 0,0 l/m 0,0 km/h (0 Bft) 0 min 0,0 km/h (0 Bft)
01.09.2009 02:34 23,0 C 17,3 C 0,0 UV-I 0,0 C 48 % 60 % 0 % 1010,4 hPa 0,0 l/m 0,0 km/h (0 Bft) 0 min 0,0 km/h (0 Bft)
01.09.2009 02:38 23,0 C 17,2 C 0,0 UV-I 0,0 C 47 % 60 % 0 % 1010,0 hPa 0,0 l/m 0,0 km/h (0 Bft) 0 min 0,0 km/h (0 Bft)
01.09.2009 02:40 23,0 C 17,2 C 0,0 UV-I 0,0 C 48 % 60 % 0 % 1010,0 hPa 0,0 l/m 0,0 km/h (0 Bft) 0 min 0,0 km/h (0 Bft)
01.09.2009 02:42 23,0 C 17,2 C 0,0 UV-I 0,0 C 48 % 60 % 0 % 1010,0 hPa 0,0 l/m 0,0 km/h (0 Bft) 0 min 0,0 km/h (0 Bft)
01.09.2009 02:44 23,0 C 17,2 C 0,0 UV-I 0,0 C 48 % 60 % 0 % 1010,0 hPa 0,0 l/m 0,0 km/h (0 Bft) 0 min 0,0 km/h (0 Bft)
01.09.2009 02:48 23,0 C 17,1 C 0,0 UV-I 0,0 C 48 % 60 % 0 % 1010,0 hPa 0,0 l/m 0,0 km/h (0 Bft) 0 min 0,0 km/h (0 Bft)
01.09.2009 02:50 23,0 C 17,1 C 0,0 UV-I 0,0 C 48 % 60 % 0 % 1010,0 hPa 0,0 l/m 0,0 km/h (0 Bft) 0 min 0,0 km/h (0 Bft)
01.09.2009 02:52 23,0 C 17,1 C 0,0 UV-I 0,0 C 48 % 60 % 0 % 1010,0 hPa 0,0 l/m 0,0 km/h (0 Bft) 0 min 0,0 km/h (0 Bft)
01.09.2009 02:54 23,0 C 17,1 C 0,0 UV-I 0,0 C 48 % 60 % 0 % 1010,0 hPa 0,0 l/m 0,0 km/h (0 Bft) 0 min 0,0 km/h (0 Bft)
01.09.2009 02:56 23,0 C 17,0 C 0,0 UV-I 0,0 C 48 % 60 % 0 % 1009,8 hPa 0,0 l/m 0,0 km/h (0 Bft) 0 min 0,0 km/h (0 Bft)
01.09.2009 02:58 23,0 C 17,1 C 0,0 UV-I 0,0 C 48 % 60 % 0 % 1009,8 hPa 0,0 l/m 0,0 km/h (0 Bft) 0 min 0,0 km/h (0 Bft)
01.09.2009 03:00 23,0 C 17,1 C 0,0 UV-I 0,0 C 48 % 61 % 0 % 1009,8 hPa 0,0 l/m 0,2 km/h (0 Bft) 0 min 0,0 km/h (0 Bft)
01.09.2009 03:02 23,0 C 17,1 C 0,0 UV-I 0,0 C 48 % 61 % 0 % 1009,8 hPa 0,0 l/m 0,2 km/h (0 Bft) 0 min 0,0 km/h (0 Bft)
01.09.2009 03:06 22,9 C 17,1 C 0,0 UV-I 0,0 C 47 % 61 % 0 % 1009,8 hPa 0,0 l/m 0,5 km/h (0 Bft) 0 min 0,0 km/h (0 Bft)
01.09.2009 03:08 22,9 C 17,1 C 0,0 UV-I 0,0 C 47 % 61 % 0 % 1009,8 hPa 0,0 l/m 0,5 km/h (0 Bft) 0 min 2,6 km/h (1 Bft)
01.09.2009 03:12 22,9 C 17,1 C 0,0 UV-I 0,0 C 47 % 61 % 0 % 1009,8 hPa 0,0 l/m 1,0 km/h (0 Bft) 0 min 2,6 km/h (1 Bft)
01.09.2009 03:14 22,9 C 17,1 C 0,0 UV-I 0,0 C 47 % 61 % 0 % 1009,8 hPa 0,0 l/m 1,0 km/h (0 Bft) 0 min 0,0 km/h (0 Bft)
01.09.2009 03:16 22,9 C 17,0 C 0,0 UV-I 0,0 C 47 % 61 % 0 % 1009,6 hPa 0,0 l/m 0,7 km/h (0 Bft) 0 min 0,0 km/h (0 Bft)
01.09.2009 03:18 22,8 C 17,0 C 0,0 UV-I 0,0 C 47 % 61 % 0 % 1009,6 hPa 0,0 l/m 1,0 km/h (0 Bft) 0 min 4,3 km/h (1 Bft)
01.09.2009 03:20 22,8 C 17,0 C 0,0 UV-I 0,0 C 47 % 61 % 0 % 1009,6 hPa 0,0 l/m 0,7 km/h (0 Bft) 0 min 4,3 km/h (1 Bft)
01.09.2009 03:22 22,8 C 17,0 C 0,0 UV-I 0,0 C 47 % 61 % 0 % 1009,6 hPa 0,0 l/m 0,7 km/h (0 Bft) 0 min 0,0 km/h (0 Bft)
01.09.2009 03:24 22,8 C 17,0 C 0,0 UV-I 0,0 C 47 % 61 % 0 % 1009,6 hPa 0,0 l/m 0,7 km/h (0 Bft) 0 min 2,9 km/h (1 Bft)
01.09.2009 03:26 22,8 C 16,9 C 0,0 UV-I 0,0 C 47 % 61 % 0 % 1009,6 hPa 0,0 l/m 1,0 km/h (0 Bft) 0 min 2,9 km/h (1 Bft)
01.09.2009 03:28 22,8 C 16,9 C 0,0 UV-I 0,0 C 47 % 61 % 0 % 1009,6 hPa 0,0 l/m 1,0 km/h (0 Bft) 0 min 4,1 km/h (1 Bft)
01.09.2009 03:30 22,8 C 16,9 C 0,0 UV-I 0,0 C 47 % 61 % 0 % 1009,6 hPa 0,0 l/m 1,2 km/h (1 Bft) 0 min 4,1 km/h (1 Bft)
01.09.2009 03:32 22,8 C 16,9 C 0,0 UV-I 0,0 C 47 % 61 % 0 % 1009,6 hPa 0,0 l/m 1,2 km/h (1 Bft) 0 min 9,9 km/h (2 Bft)
01.09.2009 03:34 22,7 C 16,9 C 0,0 UV-I 0,0 C 47 % 61 % 0 % 1009,6 hPa 0,0 l/m 1,2 km/h (1 Bft) 0 min 4,3 km/h (1 Bft)
01.09.2009 03:36 22,7 C 16,9 C 0,0 UV-I 0,0 C 47 % 61 % 0 % 1009,6 hPa 0,0 l/m 1,4 km/h (1 Bft) 0 min 4,3 km/h (1 Bft)
01.09.2009 03:38 22,7 C 16,9 C 0,0 UV-I 0,0 C 47 % 61 % 0 % 1009,6 hPa 0,0 l/m 1,2 km/h (1 Bft) 0 min 4,1 km/h (1 Bft)
01.09.2009 03:40 22,7 C 16,8 C 0,0 UV-I 0,0 C 47 % 61 % 0 % 1009,6 hPa 0,0 l/m 1,2 km/h (1 Bft) 0 min 3,4 km/h (1 Bft)
01.09.2009 03:42 22,7 C 16,8 C 0,0 UV-I 0,0 C 47 % 61 % 0 % 1009,6 hPa 0,0 l/m 1,2 km/h (1 Bft) 0 min 3,4 km/h (1 Bft)
01.09.2009 03:44 22,7 C 16,8 C 0,0 UV-I 0,0 C 47 % 61 % 0 % 1009,6 hPa 0,0 l/m 1,2 km/h (1 Bft) 0 min 0,0 km/h (0 Bft)
01.09.2009 03:46 22,7 C 16,8 C 0,0 UV-I 0,0 C 47 % 61 % 0 % 1009,6 hPa 0,0 l/m 1,0 km/h (0 Bft) 0 min 0,0 km/h (0 Bft)
01.09.2009 03:48 22,7 C 16,9 C 0,0 UV-I 0,0 C 47 % 61 % 0 % 1009,6 hPa 0,0 l/m 0,5 km/h (0 Bft) 0 min 0,0 km/h (0 Bft)
01.09.2009 03:50 22,7 C 16,9 C 0,0 UV-I 0,0 C 47 % 61 % 0 % 1009,6 hPa 0,0 l/m 0,2 km/h (0 Bft) 0 min 0,0 km/h (0 Bft)
01.09.2009 03:52 22,7 C 16,8 C 0,0 UV-I 0,0 C 47 % 61 % 0 % 1009,6 hPa 0,0 l/m 0,0 km/h (0 Bft) 0 min 0,0 km/h (0 Bft)
01.09.2009 03:54 22,7 C 16,8 C 0,0 UV-I 0,0 C 47 % 62 % 0 % 1009,6 hPa 0,0 l/m 0,0 km/h (0 Bft) 0 min 0,0 km/h (0 Bft)
01.09.2009 03:56 22,7 C 16,7 C 0,0 UV-I 0,0 C 47 % 62 % 0 % 1009,3 hPa 0,0 l/m 0,0 km/h (0 Bft) 0 min 0,0 km/h (0 Bft)
01.09.2009 03:58 22,7 C 16,7 C 0,0 UV-I 0,0 C 47 % 62 % 0 % 1009,3 hPa 0,0 l/m 0,0 km/h (0 Bft) 0 min 0,0 km/h (0 Bft)
01.09.2009 04:00 22,7 C 16,7 C 0,0 UV-I 0,0 C 47 % 62 % 0 % 1009,3 hPa 0,0 l/m 0,2 km/h (0 Bft) 0 min 6,0 km/h (2 Bft)
01.09.2009 04:02 22,7 C 16,7 C 0,0 UV-I 0,0 C 47 % 62 % 0 % 1009,3 hPa 0,0 l/m 0,2 km/h (0 Bft) 0 min 6,0 km/h (2 Bft)
01.09.2009 04:06 22,7 C 16,6 C 0,0 UV-I 0,0 C 47 % 62 % 0 % 1009,3 hPa 0,0 l/m 1,0 km/h (0 Bft) 0 min 0,0 km/h (0 Bft)
01.09.2009 04:08 22,7 C 16,6 C 0,0 UV-I 0,0 C 47 % 62 % 0 % 1009,3 hPa 0,0 l/m 1,2 km/h (1 Bft) 0 min 4,1 km/h (1 Bft)
01.09.2009 04:10 22,7 C 16,6 C 0,0 UV-I 0,0 C 47 % 62 % 0 % 1009,3 hPa 0,0 l/m 1,4 km/h (1 Bft) 0 min 4,1 km/h (1 Bft)
01.09.2009 04:14 22,7 C 16,7 C 0,0 UV-I 0,0 C 47 % 62 % 0 % 1009,3 hPa 0,0 l/m 1,0 km/h (0 Bft) 0 min 4,1 km/h (1 Bft)
01.09.2009 04:15 22,7 C 16,7 C 0,0 UV-I 0,0 C 47 % 62 % 0 % 1009,3 hPa 0,0 l/m 1,0 km/h (0 Bft) 0 min 0,0 km/h (0 Bft)
01.09.2009 04:16 22,7 C 16,7 C 0,0 UV-I 0,0 C 47 % 62 % 0 % 1009,4 hPa 0,0 l/m 1,0 km/h (0 Bft) 0 min 0,0 km/h (0 Bft)
01.09.2009 04:18 22,7 C 16,7 C 0,0 UV-I 0,0 C 47 % 62 % 0 % 1009,4 hPa 0,0 l/m 1,0 km/h (0 Bft) 0 min 0,0 km/h (0 Bft)
01.09.2009 04:20 22,7 C 16,6 C 0,0 UV-I 0,0 C 47 % 62 % 0 % 1009,4 hPa 0,0 l/m 1,0 km/h (0 Bft) 0 min 4,8 km/h (1 Bft)
01.09.2009 04:22 22,7 C 16,7 C 0,0 UV-I 0,0 C 47 % 62 % 0 % 1009,4 hPa 0,0 l/m 1,0 km/h (0 Bft) 0 min 4,8 km/h (1 Bft)
01.09.2009 04:24 22,7 C 16,6 C 0,0 UV-I 0,0 C 47 % 62 % 0 % 1009,4 hPa 0,0 l/m 1,4 km/h (1 Bft) 0 min 4,8 km/h (1 Bft)
01.09.2009 04:26 22,7 C 16,6 C 0,0 UV-I 0,0 C 47 % 62 % 0 % 1009,4 hPa 0,0 l/m 1,0 km/h (0 Bft) 0 min 0,0 km/h (0 Bft)
01.09.2009 04:28 22,6 C 16,5 C 0,0 UV-I 0,0 C 47 % 62 % 0 % 1009,4 hPa 0,0 l/m 1,0 km/h (0 Bft) 0 min 0,0 km/h (0 Bft)
01.09.2009 04:30 22,6 C 16,5 C 0,0 UV-I 0,0 C 47 % 62 % 0 % 1009,4 hPa 0,0 l/m 1,2 km/h (1 Bft) 0 min 5,3 km/h (1 Bft)
01.09.2009 04:32 22,6 C 16,5 C 0,0 UV-I 0,0 C 47 % 62 % 0 % 1009,4 hPa 0,0 l/m 1,0 km/h (0 Bft) 0 min 5,3 km/h (1 Bft)
01.09.2009 04:34 22,6 C 16,5 C 0,0 UV-I 0,0 C 47 % 62 % 0 % 1009,4 hPa 0,0 l/m 0,5 km/h (0 Bft) 0 min 3,4 km/h (1 Bft)
01.09.2009 04:36 22,6 C 16,5 C 0,0 UV-I 0,0 C 47 % 62 % 0 % 1009,2 hPa 0,0 l/m 0,7 km/h (0 Bft) 0 min 3,4 km/h (1 Bft)
01.09.2009 04:38 22,6 C 16,5 C 0,0 UV-I 0,0 C 47 % 62 % 0 % 1009,2 hPa 0,0 l/m 1,0 km/h (0 Bft) 0 min 2,6 km/h (1 Bft)
01.09.2009 04:40 22,6 C 16,5 C 0,0 UV-I 0,0 C 47 % 62 % 0 % 1009,2 hPa 0,0 l/m 1,0 km/h (0 Bft) 0 min 2,4 km/h (1 Bft)
01.09.2009 04:42 22,6 C 16,4 C 0,0 UV-I 0,0 C 47 % 63 % 0 % 1009,2 hPa 0,0 l/m 0,7 km/h (0 Bft) 0 min 3,1 km/h (1 Bft)
01.09.2009 04:44 22,6 C 16,4 C 0,0 UV-I 0,0 C 47 % 63 % 0 % 1009,2 hPa 0,0 l/m 1,0 km/h (0 Bft) 0 min 3,1 km/h (1 Bft)
01.09.2009 04:46 22,6 C 16,4 C 0,0 UV-I 0,0 C 47 % 63 % 0 % 1009,2 hPa 0,0 l/m 0,7 km/h (0 Bft) 0 min 3,1 km/h (1 Bft)
01.09.2009 04:48 22,6 C 16,4 C 0,0 UV-I 0,0 C 47 % 63 % 0 % 1009,2 hPa 0,0 l/m 0,7 km/h (0 Bft) 0 min 0,0 km/h (0 Bft)
01.09.2009 04:50 22,6 C 16,4 C 0,0 UV-I 0,0 C 47 % 63 % 0 % 1009,2 hPa 0,0 l/m 0,7 km/h (0 Bft) 0 min 0,0 km/h (0 Bft)
01.09.2009 04:52 22,6 C 16,4 C 0,0 UV-I 0,0 C 47 % 63 % 0 % 1009,2 hPa 0,0 l/m 0,5 km/h (0 Bft) 0 min 0,0 km/h (0 Bft)
01.09.2009 04:54 22,5 C 16,4 C 0,0 UV-I 0,0 C 47 % 63 % 0 % 1009,2 hPa 0,0 l/m 0,7 km/h (0 Bft) 0 min 6,7 km/h (2 Bft)
01.09.2009 04:56 22,6 C 16,4 C 0,0 UV-I 0,0 C 47 % 63 % 0 % 1008,8 hPa 0,0 l/m 1,2 km/h (1 Bft) 0 min 6,7 km/h (2 Bft)
01.09.2009 04:58 22,6 C 16,4 C 0,0 UV-I 0,0 C 47 % 63 % 0 % 1008,8 hPa 0,0 l/m 1,0 km/h (0 Bft) 0 min 3,1 km/h (1 Bft)
01.09.2009 05:00 22,5 C 16,4 C 0,0 UV-I 0,0 C 47 % 63 % 0 % 1008,8 hPa 0,0 l/m 1,2 km/h (1 Bft) 0 min 3,4 km/h (1 Bft)
01.09.2009 05:02 22,5 C 16,4 C 0,0 UV-I 0,0 C 47 % 63 % 0 % 1008,8 hPa 0,0 l/m 1,7 km/h (1 Bft) 0 min 3,8 km/h (1 Bft)
01.09.2009 05:04 22,5 C 16,4 C 0,0 UV-I 0,0 C 47 % 63 % 0 % 1008,8 hPa 0,0 l/m 1,9 km/h (1 Bft) 0 min 3,8 km/h (1 Bft)
01.09.2009 05:06 22,5 C 16,4 C 0,0 UV-I 0,0 C 47 % 63 % 0 % 1008,8 hPa 0,0 l/m 1,7 km/h (1 Bft) 0 min 2,9 km/h (1 Bft)
01.09.2009 05:08 22,5 C 16,4 C 0,0 UV-I 0,0 C 47 % 63 % 0 % 1008,8 hPa 0,0 l/m 1,7 km/h (1 Bft) 0 min 0,0 km/h (0 Bft)
01.09.2009 05:10 22,5 C 16,4 C 0,0 UV-I 0,0 C 47 % 63 % 0 % 1008,8 hPa 0,0 l/m 1,7 km/h (1 Bft) 0 min 5,8 km/h (2 Bft)
01.09.2009 05:12 22,4 C 16,4 C 0,0 UV-I 0,0 C 47 % 63 % 0 % 1008,8 hPa 0,0 l/m 1,7 km/h (1 Bft) 0 min 5,8 km/h (2 Bft)
01.09.2009 05:14 22,4 C 16,4 C 0,0 UV-I 0,0 C 47 % 63 % 0 % 1008,8 hPa 0,0 l/m 1,2 km/h (1 Bft) 0 min 2,6 km/h (1 Bft)
01.09.2009 05:16 22,5 C 16,5 C 0,0 UV-I 0,0 C 47 % 63 % 0 % 1008,4 hPa 0,0 l/m 1,2 km/h (1 Bft) 0 min 3,4 km/h (1 Bft)
01.09.2009 05:18 22,4 C 16,5 C 0,0 UV-I 0,0 C 47 % 63 % 0 % 1008,4 hPa 0,0 l/m 1,2 km/h (1 Bft) 0 min 4,6 km/h (1 Bft)
01.09.2009 05:20 22,4 C 16,5 C 0,0 UV-I 0,0 C 47 % 63 % 0 % 1008,4 hPa 0,0 l/m 1,9 km/h (1 Bft) 0 min 4,6 km/h (1 Bft)
01.09.2009 05:22 22,4 C 16,5 C 0,0 UV-I 0,0 C 47 % 63 % 0 % 1008,4 hPa 0,0 l/m 1,7 km/h (1 Bft) 0 min 3,8 km/h (1 Bft)
01.09.2009 05:24 22,4 C 16,5 C 0,0 UV-I 0,0 C 47 % 63 % 0 % 1008,4 hPa 0,0 l/m 1,7 km/h (1 Bft) 0 min 3,8 km/h (1 Bft)
01.09.2009 05:26 22,4 C 16,5 C 0,0 UV-I 0,0 C 47 % 63 % 0 % 1008,4 hPa 0,0 l/m 1,7 km/h (1 Bft) 0 min 3,8 km/h (1 Bft)
01.09.2009 05:28 22,4 C 16,5 C 0,0 UV-I 0,0 C 47 % 63 % 0 % 1008,4 hPa 0,0 l/m 1,4 km/h (1 Bft) 0 min 3,4 km/h (1 Bft)
01.09.2009 05:30 22,4 C 16,5 C 0,0 UV-I 0,0 C 47 % 63 % 0 % 1008,4 hPa 0,0 l/m 1,4 km/h (1 Bft) 0 min 0,0 km/h (0 Bft)
01.09.2009 05:32 22,4 C 16,5 C 0,0 UV-I 0,0 C 47 % 63 % 0 % 1008,4 hPa 0,0 l/m 1,7 km/h (1 Bft) 0 min 4,3 km/h (1 Bft)
01.09.2009 05:34 22,4 C 16,5 C 0,0 UV-I 0,0 C 47 % 63 % 0 % 1008,4 hPa 0,0 l/m 1,7 km/h (1 Bft) 0 min 4,3 km/h (1 Bft)
01.09.2009 05:36 22,4 C 16,5 C 0,0 UV-I 0,0 C 47 % 63 % 0 % 1008,7 hPa 0,0 l/m 1,7 km/h (1 Bft) 0 min 0,0 km/h (0 Bft)
01.09.2009 05:40 22,4 C 16,5 C 0,0 UV-I 0,0 C 47 % 63 % 0 % 1008,7 hPa 0,0 l/m 2,4 km/h (1 Bft) 0 min 7,5 km/h (2 Bft)
01.09.2009 05:42 22,4 C 16,5 C 0,0 UV-I 0,0 C 47 % 63 % 0 % 1008,7 hPa 0,0 l/m 2,9 km/h (1 Bft) 0 min 10,1 km/h (2 Bft)
01.09.2009 05:44 22,4 C 16,6 C 0,0 UV-I 0,0 C 47 % 63 % 0 % 1008,7 hPa 0,0 l/m 2,9 km/h (1 Bft) 0 min 9,1 km/h (2 Bft)
01.09.2009 05:46 22,4 C 16,6 C 0,0 UV-I 0,0 C 47 % 63 % 0 % 1008,7 hPa 0,0 l/m 3,1 km/h (1 Bft) 0 min 4,1 km/h (1 Bft)
01.09.2009 05:48 22,4 C 16,6 C 0,0 UV-I 0,0 C 47 % 63 % 0 % 1008,7 hPa 0,0 l/m 3,6 km/h (1 Bft) 0 min 5,3 km/h (1 Bft)
01.09.2009 05:50 22,2 C 16,7 C 0,0 UV-I 0,0 C 47 % 63 % 0 % 1008,7 hPa 0,0 l/m 3,8 km/h (1 Bft) 0 min 5,8 km/h (2 Bft)
01.09.2009 05:52 22,2 C 16,7 C 0,0 UV-I 0,0 C 47 % 63 % 0 % 1008,7 hPa 0,0 l/m 3,6 km/h (1 Bft) 0 min 6,7 km/h (2 Bft)
01.09.2009 05:54 22,2 C 16,7 C 0,0 UV-I 0,0 C 47 % 63 % 0 % 1008,7 hPa 0,0 l/m 4,1 km/h (1 Bft) 0 min 8,4 km/h (2 Bft)
01.09.2009 05:56 22,3 C 16,7 C 0,0 UV-I 0,0 C 47 % 63 % 0 % 1008,4 hPa 0,0 l/m 4,1 km/h (1 Bft) 0 min 8,4 km/h (2 Bft)
01.09.2009 05:58 22,3 C 16,7 C 0,0 UV-I 0,0 C 47 % 63 % 0 % 1008,4 hPa 0,0 l/m 4,3 km/h (1 Bft) 0 min 5,5 km/h (1 Bft)
01.09.2009 06:00 22,2 C 16,7 C 0,0 UV-I 0,0 C 47 % 63 % 0 % 1008,4 hPa 0,0 l/m 4,3 km/h (1 Bft) 0 min 5,5 km/h (1 Bft)
01.09.2009 06:02 22,2 C 16,6 C 0,0 UV-I 0,0 C 47 % 63 % 0 % 1008,4 hPa 0,0 l/m 3,6 km/h (1 Bft) 0 min 12,3 km/h (3 Bft)
01.09.2009 06:06 22,2 C 16,6 C 0,0 UV-I 0,0 C 47 % 63 % 0 % 1008,4 hPa 0,0 l/m 2,9 km/h (1 Bft) 0 min 2,6 km/h (1 Bft)
01.09.2009 06:08 22,2 C 16,6 C 0,0 UV-I 0,0 C 47 % 63 % 0 % 1008,4 hPa 0,0 l/m 2,2 km/h (1 Bft) 0 min 0,0 km/h (0 Bft)
01.09.2009 06:10 22,2 C 16,7 C 0,0 UV-I 0,0 C 47 % 63 % 0 % 1008,4 hPa 0,0 l/m 2,2 km/h (1 Bft) 0 min 5,1 km/h (1 Bft)
01.09.2009 06:12 22,2 C 16,6 C 0,0 UV-I 0,0 C 47 % 63 % 0 % 1008,4 hPa 0,0 l/m 2,4 km/h (1 Bft) 0 min 5,5 km/h (1 Bft)
01.09.2009 06:14 22,2 C 16,6 C 0,0 UV-I 0,0 C 47 % 63 % 0 % 1008,4 hPa 0,0 l/m 2,6 km/h (1 Bft) 0 min 5,5 km/h (1 Bft)
01.09.2009 06:16 22,3 C 16,7 C 0,0 UV-I 0,0 C 47 % 63 % 0 % 1008,4 hPa 0,0 l/m 2,9 km/h (1 Bft) 0 min 5,1 km/h (1 Bft)
01.09.2009 06:18 22,3 C 16,7 C 0,0 UV-I 0,0 C 47 % 63 % 0 % 1008,4 hPa 0,0 l/m 2,6 km/h (1 Bft) 0 min 5,1 km/h (1 Bft)
01.09.2009 06:20 22,3 C 16,7 C 0,0 UV-I 0,0 C 47 % 63 % 0 % 1008,4 hPa 0,0 l/m 2,9 km/h (1 Bft) 0 min 4,1 km/h (1 Bft)
01.09.2009 06:22 22,3 C 16,7 C 0,0 UV-I 0,0 C 47 % 63 % 0 % 1008,4 hPa 0,0 l/m 2,6 km/h (1 Bft) 0 min 7,7 km/h (2 Bft)
01.09.2009 06:24 22,3 C 16,7 C 0,0 UV-I 0,0 C 48 % 63 % 0 % 1008,4 hPa 0,0 l/m 2,4 km/h (1 Bft) 0 min 7,7 km/h (2 Bft)
01.09.2009 06:26 22,3 C 16,7 C 0,0 UV-I 0,0 C 48 % 63 % 0 % 1008,4 hPa 0,0 l/m 2,2 km/h (1 Bft) 0 min 6,5 km/h (2 Bft)
01.09.2009 06:28 22,3 C 16,7 C 0,0 UV-I 0,0 C 48 % 64 % 0 % 1008,4 hPa 0,0 l/m 1,9 km/h (1 Bft) 0 min 0,0 km/h (0 Bft)
01.09.2009 06:30 22,3 C 16,7 C 0,0 UV-I 0,0 C 48 % 64 % 0 % 1008,4 hPa 0,0 l/m 2,4 km/h (1 Bft) 0 min 3,1 km/h (1 Bft)
01.09.2009 06:32 22,2 C 16,7 C 0,0 UV-I 0,0 C 48 % 64 % 0 % 1008,4 hPa 0,0 l/m 2,6 km/h (1 Bft) 0 min 8,7 km/h (2 Bft)
01.09.2009 06:34 22,3 C 16,6 C 0,0 UV-I 0,0 C 48 % 64 % 0 % 1008,4 hPa 0,0 l/m 2,6 km/h (1 Bft) 0 min 8,7 km/h (2 Bft)
01.09.2009 06:36 22,2 C 16,7 C 0,0 UV-I 0,0 C 48 % 64 % 0 % 1008,2 hPa 0,0 l/m 2,2 km/h (1 Bft) 0 min 5,1 km/h (1 Bft)
01.09.2009 06:38 22,2 C 16,6 C 0,0 UV-I 0,0 C 48 % 64 % 0 % 1008,2 hPa 0,0 l/m 2,4 km/h (1 Bft) 0 min 5,1 km/h (1 Bft)
01.09.2009 06:40 22,2 C 16,6 C 0,0 UV-I 0,0 C 48 % 64 % 0 % 1008,2 hPa 0,0 l/m 2,2 km/h (1 Bft) 0 min 3,8 km/h (1 Bft)
01.09.2009 06:42 22,2 C 16,7 C 0,0 UV-I 0,0 C 48 % 64 % 0 % 1008,2 hPa 0,0 l/m 1,9 km/h (1 Bft) 0 min 3,8 km/h (1 Bft)
01.09.2009 06:44 22,2 C 16,7 C 0,0 UV-I 0,0 C 48 % 64 % 0 % 1008,2 hPa 0,0 l/m 1,7 km/h (1 Bft) 0 min 4,3 km/h (1 Bft)
01.09.2009 06:46 22,2 C 16,7 C 0,0 UV-I 0,0 C 48 % 64 % 0 % 1008,2 hPa 0,0 l/m 1,7 km/h (1 Bft) 0 min 4,8 km/h (1 Bft)
01.09.2009 06:48 22,2 C 16,7 C 0,0 UV-I 0,0 C 48 % 64 % 0 % 1008,2 hPa 0,0 l/m 1,7 km/h (1 Bft) 0 min 4,8 km/h (1 Bft)
01.09.2009 06:50 22,2 C 16,7 C 0,0 UV-I 0,0 C 48 % 64 % 0 % 1008,2 hPa 0,0 l/m 1,7 km/h (1 Bft) 0 min 9,6 km/h (2 Bft)
01.09.2009 06:52 22,2 C 16,7 C 0,0 UV-I 0,0 C 48 % 65 % 0 % 1008,2 hPa 0,0 l/m 1,7 km/h (1 Bft) 0 min 9,6 km/h (2 Bft)
01.09.2009 06:54 22,2 C 16,7 C 0,0 UV-I 0,0 C 48 % 65 % 0 % 1008,2 hPa 0,0 l/m 2,2 km/h (1 Bft) 0 min 4,1 km/h (1 Bft)
01.09.2009 06:56 22,2 C 16,7 C 0,0 UV-I 0,0 C 48 % 65 % 0 % 1008,2 hPa 0,0 l/m 2,2 km/h (1 Bft) 0 min 4,1 km/h (1 Bft)
01.09.2009 06:58 22,2 C 16,6 C 0,0 UV-I 0,0 C 48 % 65 % 0 % 1008,2 hPa 0,0 l/m 1,9 km/h (1 Bft) 0 min 3,8 km/h (1 Bft)
01.09.2009 07:00 22,2 C 16,7 C 0,0 UV-I 0,0 C 48 % 65 % 0 % 1008,2 hPa 0,0 l/m 2,4 km/h (1 Bft) 0 min 3,8 km/h (1 Bft)
01.09.2009 07:02 22,2 C 16,7 C 0,0 UV-I 0,0 C 48 % 65 % 0 % 1008,2 hPa 0,0 l/m 2,2 km/h (1 Bft) 0 min 5,1 km/h (1 Bft)
01.09.2009 07:04 22,2 C 16,6 C 0,0 UV-I 0,0 C 48 % 65 % 0 % 1008,2 hPa 0,0 l/m 1,7 km/h (1 Bft) 0 min 5,1 km/h (1 Bft)
01.09.2009 07:06 22,2 C 16,6 C 0,0 UV-I 0,0 C 48 % 65 % 0 % 1008,2 hPa 0,0 l/m 1,4 km/h (1 Bft) 0 min 3,1 km/h (1 Bft)
01.09.2009 07:08 22,2 C 16,7 C 0,0 UV-I 0,0 C 48 % 66 % 0 % 1008,2 hPa 0,0 l/m 1,7 km/h (1 Bft) 0 min 6,7 km/h (2 Bft)
01.09.2009 07:10 22,2 C 16,5 C 0,0 UV-I 0,0 C 48 % 66 % 0 % 1008,2 hPa 0,0 l/m 1,7 km/h (1 Bft) 0 min 6,7 km/h (2 Bft)
01.09.2009 07:12 22,2 C 16,5 C 0,0 UV-I 0,0 C 48 % 66 % 0 % 1008,2 hPa 0,0 l/m 1,4 km/h (1 Bft) 0 min 3,8 km/h (1 Bft)
01.09.2009 07:14 22,2 C 16,5 C 0,0 UV-I 0,0 C 48 % 66 % 0 % 1008,2 hPa 0,0 l/m 1,4 km/h (1 Bft) 0 min 3,8 km/h (1 Bft)
01.09.2009 07:16 22,2 C 16,6 C 0,0 UV-I 0,0 C 48 % 66 % 0 % 1008,7 hPa 0,0 l/m 1,4 km/h (1 Bft) 0 min 3,1 km/h (1 Bft)
01.09.2009 07:18 22,2 C 16,6 C 0,0 UV-I 0,0 C 48 % 66 % 0 % 1008,7 hPa 0,0 l/m 1,2 km/h (1 Bft) 0 min 0,0 km/h (0 Bft)
01.09.2009 07:20 22,2 C 16,6 C 0,0 UV-I 0,0 C 48 % 66 % 0 % 1008,7 hPa 0,0 l/m 1,0 km/h (0 Bft) 0 min 4,3 km/h (1 Bft)
01.09.2009 07:22 22,1 C 16,6 C 0,0 UV-I 0,0 C 48 % 66 % 0 % 1008,7 hPa 0,0 l/m 1,2 km/h (1 Bft) 0 min 4,3 km/h (1 Bft)
01.09.2009 07:24 22,1 C 16,7 C 0,0 UV-I 0,0 C 48 % 66 % 0 % 1008,7 hPa 0,0 l/m 1,2 km/h (1 Bft) 0 min 4,8 km/h (1 Bft)
01.09.2009 07:26 22,2 C 16,5 C 0,0 UV-I 0,0 C 49 % 66 % 0 % 1008,7 hPa 0,0 l/m 1,9 km/h (1 Bft) 0 min 5,5 km/h (1 Bft)
01.09.2009 07:28 22,1 C 16,6 C 0,0 UV-I 0,0 C 49 % 67 % 0 % 1008,7 hPa 0,0 l/m 2,2 km/h (1 Bft) 0 min 5,5 km/h (1 Bft)
01.09.2009 07:30 22,1 C 16,6 C 0,0 UV-I 0,0 C 49 % 67 % 0 % 1008,7 hPa 0,0 l/m 2,9 km/h (1 Bft) 0 min 6,5 km/h (2 Bft)
01.09.2009 07:32 22,1 C 16,7 C 0,0 UV-I 0,0 C 49 % 67 % 0 % 1008,7 hPa 0,0 l/m 2,6 km/h (1 Bft) 0 min 6,5 km/h (2 Bft)
01.09.2009 07:34 22,1 C 16,7 C 0,0 UV-I 0,0 C 49 % 67 % 0 % 1008,7 hPa 0,0 l/m 2,9 km/h (1 Bft) 0 min 4,1 km/h (1 Bft)
01.09.2009 07:36 22,1 C 16,7 C 0,0 UV-I 0,0 C 49 % 67 % 0 % 1008,7 hPa 0,0 l/m 3,4 km/h (1 Bft) 0 min 7,2 km/h (2 Bft)
01.09.2009 07:38 22,1 C 16,7 C 0,2 UV-I 0,0 C 49 % 67 % 0 % 1008,7 hPa 0,0 l/m 3,1 km/h (1 Bft) 0 min 7,2 km/h (2 Bft)
01.09.2009 07:40 22,1 C 16,7 C 0,2 UV-I 0,0 C 49 % 67 % 0 % 1008,7 hPa 0,0 l/m 3,4 km/h (1 Bft) 0 min 7,0 km/h (2 Bft)
01.09.2009 07:42 22,1 C 16,7 C 0,2 UV-I 0,0 C 49 % 67 % 0 % 1008,7 hPa 0,0 l/m 4,1 km/h (1 Bft) 0 min 13,5 km/h (3 Bft)
01.09.2009 07:44 22,1 C 16,8 C 0,2 UV-I 0,0 C 49 % 67 % 0 % 1008,7 hPa 0,0 l/m 4,1 km/h (1 Bft) 0 min 7,2 km/h (2 Bft)
01.09.2009 07:46 22,1 C 16,8 C 0,2 UV-I 0,0 C 49 % 67 % 0 % 1008,7 hPa 0,0 l/m 4,1 km/h (1 Bft) 0 min 4,8 km/h (1 Bft)
01.09.2009 07:48 22,1 C 16,8 C 0,3 UV-I 0,0 C 49 % 67 % 0 % 1008,7 hPa 0,0 l/m 4,3 km/h (1 Bft) 0 min 4,8 km/h (1 Bft)
01.09.2009 07:50 22,1 C 16,8 C 0,3 UV-I 0,1 C 49 % 67 % 3 % 1008,7 hPa 0,0 l/m 4,1 km/h (1 Bft) 0 min 4,6 km/h (1 Bft)
01.09.2009 07:52 22,1 C 16,9 C 0,4 UV-I 0,0 C 49 % 68 % 0 % 1008,7 hPa 0,0 l/m 3,1 km/h (1 Bft) 0 min 3,1 km/h (1 Bft)
01.09.2009 07:54 22,0 C 16,8 C 0,4 UV-I 0,1 C 49 % 68 % 3 % 1008,7 hPa 0,0 l/m 2,6 km/h (1 Bft) 0 min 5,1 km/h (1 Bft)
01.09.2009 07:56 22,0 C 16,8 C 0,4 UV-I 0,1 C 49 % 68 % 3 % 1009,2 hPa 0,0 l/m 2,4 km/h (1 Bft) 0 min 5,1 km/h (1 Bft)
01.09.2009 07:58 22,0 C 16,9 C 0,5 UV-I 0,0 C 49 % 68 % 0 % 1009,2 hPa 0,0 l/m 1,9 km/h (1 Bft) 0 min 3,6 km/h (1 Bft)
01.09.2009 08:00 22,0 C 16,9 C 0,5 UV-I 0,0 C 49 % 68 % 0 % 1009,2 hPa 0,0 l/m 1,7 km/h (1 Bft) 0 min 5,1 km/h (1 Bft)
01.09.2009 08:02 22,0 C 16,9 C 0,3 UV-I 0,1 C 50 % 68 % 3 % 1009,2 hPa 0,0 l/m 1,9 km/h (1 Bft) 0 min 5,1 km/h (1 Bft)
01.09.2009 08:04 22,0 C 16,9 C 0,3 UV-I 0,1 C 50 % 68 % 3 % 1009,2 hPa 0,0 l/m 1,9 km/h (1 Bft) 0 min 5,8 km/h (2 Bft)
01.09.2009 08:06 22,0 C 17,1 C 0,3 UV-I 0,0 C 50 % 68 % 0 % 1009,2 hPa 0,0 l/m 1,9 km/h (1 Bft) 0 min 6,3 km/h (2 Bft)
01.09.2009 08:08 22,0 C 17,1 C 0,3 UV-I 0,0 C 50 % 68 % 0 % 1009,2 hPa 0,0 l/m 1,9 km/h (1 Bft) 0 min 6,3 km/h (2 Bft)
01.09.2009 08:10 22,0 C 17,1 C 0,3 UV-I 0,0 C 50 % 68 % 0 % 1009,2 hPa 0,0 l/m 1,7 km/h (1 Bft) 0 min 3,1 km/h (1 Bft)
01.09.2009 08:14 22,1 C 17,1 C 0,4 UV-I 0,2 C 50 % 69 % 6 % 1009,2 hPa 0,0 l/m 1,9 km/h (1 Bft) 0 min 5,1 km/h (1 Bft)
01.09.2009 08:16 22,1 C 17,1 C 0,4 UV-I 0,2 C 50 % 69 % 6 % 1008,9 hPa 0,0 l/m 1,9 km/h (1 Bft) 0 min 5,1 km/h (1 Bft)
01.09.2009 08:18 22,1 C 17,1 C 0,7 UV-I 0,3 C 50 % 69 % 9 % 1008,9 hPa 0,0 l/m 2,2 km/h (1 Bft) 0 min 2,6 km/h (1 Bft)
01.09.2009 08:20 22,1 C 17,1 C 0,7 UV-I 0,4 C 50 % 69 % 11 % 1008,9 hPa 0,0 l/m 2,4 km/h (1 Bft) 0 min 2,6 km/h (1 Bft)
01.09.2009 08:22 22,1 C 17,2 C 0,6 UV-I 0,3 C 50 % 69 % 9 % 1008,9 hPa 0,0 l/m 2,6 km/h (1 Bft) 0 min 5,3 km/h (1 Bft)
01.09.2009 08:24 22,1 C 17,3 C 0,6 UV-I 0,3 C 50 % 69 % 9 % 1008,9 hPa 0,0 l/m 2,6 km/h (1 Bft) 0 min 6,5 km/h (2 Bft)
01.09.2009 08:26 22,1 C 17,2 C 0,6 UV-I 0,5 C 50 % 69 % 14 % 1008,9 hPa 0,0 l/m 2,9 km/h (1 Bft) 0 min 8,2 km/h (2 Bft)
01.09.2009 08:28 22,1 C 17,3 C 0,5 UV-I 0,4 C 50 % 69 % 11 % 1008,9 hPa 0,0 l/m 2,9 km/h (1 Bft) 0 min 3,8 km/h (1 Bft)
01.09.2009 08:30 22,1 C 17,4 C 0,5 UV-I 0,5 C 50 % 69 % 14 % 1008,9 hPa 0,0 l/m 3,1 km/h (1 Bft) 0 min 3,8 km/h (1 Bft)
01.09.2009 08:32 22,1 C 17,4 C 0,8 UV-I 0,6 C 50 % 69 % 17 % 1008,9 hPa 0,0 l/m 3,1 km/h (1 Bft) 0 min 4,1 km/h (1 Bft)
01.09.2009 08:34 22,1 C 17,5 C 0,8 UV-I 0,6 C 50 % 69 % 17 % 1008,9 hPa 0,0 l/m 2,9 km/h (1 Bft) 0 min 4,1 km/h (1 Bft)
01.09.2009 08:36 22,1 C 17,5 C 0,8 UV-I 0,6 C 51 % 69 % 17 % 1009,0 hPa 0,0 l/m 2,9 km/h (1 Bft) 0 min 4,3 km/h (1 Bft)
01.09.2009 08:40 22,1 C 17,6 C 0,9 UV-I 0,7 C 51 % 70 % 20 % 1009,0 hPa 0,0 l/m 1,7 km/h (1 Bft) 0 min 4,3 km/h (1 Bft)
01.09.2009 08:44 22,2 C 17,6 C 0,9 UV-I 0,9 C 51 % 70 % 26 % 1009,0 hPa 0,0 l/m 1,9 km/h (1 Bft) 0 min 4,1 km/h (1 Bft)
01.09.2009 08:46 22,1 C 17,7 C 0,9 UV-I 0,9 C 51 % 70 % 26 % 1009,0 hPa 0,0 l/m 1,7 km/h (1 Bft) 0 min 3,8 km/h (1 Bft)
01.09.2009 08:48 22,2 C 17,8 C 0,9 UV-I 0,9 C 51 % 70 % 26 % 1009,0 hPa 0,0 l/m 2,2 km/h (1 Bft) 0 min 5,1 km/h (1 Bft)
01.09.2009 08:50 22,2 C 17,9 C 0,9 UV-I 0,9 C 51 % 70 % 26 % 1009,0 hPa 0,0 l/m 2,2 km/h (1 Bft) 0 min 5,1 km/h (1 Bft)
01.09.2009 08:52 22,2 C 17,9 C 0,8 UV-I 0,9 C 51 % 70 % 26 % 1009,0 hPa 0,0 l/m 2,2 km/h (1 Bft) 0 min 7,5 km/h (2 Bft)
01.09.2009 08:56 22,2 C 18,1 C 0,8 UV-I 0,9 C 51 % 70 % 26 % 1009,2 hPa 0,0 l/m 2,4 km/h (1 Bft) 0 min 10,6 km/h (2 Bft)
01.09.2009 08:58 22,2 C 18,1 C 0,9 UV-I 1,1 C 51 % 70 % 31 % 1009,2 hPa 0,0 l/m 3,1 km/h (1 Bft) 0 min 9,6 km/h (2 Bft)
01.09.2009 09:00 22,2 C 18,2 C 0,9 UV-I 1,0 C 51 % 70 % 29 % 1009,2 hPa 0,0 l/m 3,6 km/h (1 Bft) 0 min 9,6 km/h (2 Bft)
01.09.2009 09:02 22,2 C 18,3 C 1,0 UV-I 1,0 C 51 % 70 % 29 % 1009,2 hPa 0,0 l/m 4,3 km/h (1 Bft) 0 min 9,4 km/h (2 Bft)
01.09.2009 09:04 22,2 C 18,3 C 1,0 UV-I 1,2 C 52 % 70 % 34 % 1009,2 hPa 0,0 l/m 4,8 km/h (1 Bft) 0 min 6,5 km/h (2 Bft)
01.09.2009 09:06 22,2 C 18,5 C 1,0 UV-I 1,0 C 52 % 70 % 29 % 1009,2 hPa 0,0 l/m 4,8 km/h (1 Bft) 0 min 6,7 km/h (2 Bft)
01.09.2009 09:08 22,2 C 18,4 C 1,1 UV-I 1,3 C 52 % 70 % 37 % 1009,2 hPa 0,0 l/m 4,6 km/h (1 Bft) 0 min 6,7 km/h (2 Bft)
01.09.2009 09:10 22,2 C 18,5 C 1,1 UV-I 1,2 C 52 % 70 % 34 % 1009,2 hPa 0,0 l/m 3,6 km/h (1 Bft) 0 min 0,0 km/h (0 Bft)
01.09.2009 09:12 22,2 C 18,5 C 1,3 UV-I 1,4 C 52 % 70 % 40 % 1009,2 hPa 0,0 l/m 3,4 km/h (1 Bft) 0 min 3,4 km/h (1 Bft)
01.09.2009 09:14 22,3 C 18,7 C 1,3 UV-I 1,2 C 52 % 70 % 34 % 1009,2 hPa 0,0 l/m 3,4 km/h (1 Bft) 0 min 4,6 km/h (1 Bft)
01.09.2009 09:16 22,3 C 18,7 C 1,3 UV-I 1,4 C 52 % 70 % 40 % 1009,4 hPa 0,0 l/m 2,4 km/h (1 Bft) 0 min 4,6 km/h (1 Bft)
01.09.2009 09:18 22,3 C 18,8 C 0,9 UV-I 1,4 C 52 % 70 % 40 % 1009,4 hPa 0,0 l/m 2,2 km/h (1 Bft) 0 min 3,6 km/h (1 Bft)
01.09.2009 09:20 22,2 C 18,8 C 0,9 UV-I 1,5 C 52 % 70 % 43 % 1009,4 hPa 0,0 l/m 2,4 km/h (1 Bft) 0 min 6,5 km/h (2 Bft)
01.09.2009 09:22 22,2 C 18,9 C 1,0 UV-I 1,6 C 52 % 70 % 46 % 1009,4 hPa 0,0 l/m 2,6 km/h (1 Bft) 0 min 6,5 km/h (2 Bft)
01.09.2009 09:26 22,4 C 19,1 C 1,0 UV-I 1,6 C 52 % 70 % 46 % 1009,4 hPa 0,0 l/m 1,9 km/h (1 Bft) 0 min 2,6 km/h (1 Bft)
01.09.2009 09:28 22,4 C 19,1 C 1,3 UV-I 1,7 C 52 % 70 % 49 % 1009,4 hPa 0,0 l/m 2,2 km/h (1 Bft) 0 min 4,3 km/h (1 Bft)
01.09.2009 09:30 22,4 C 19,3 C 1,3 UV-I 1,6 C 52 % 70 % 46 % 1009,4 hPa 0,0 l/m 2,2 km/h (1 Bft) 0 min 4,3 km/h (1 Bft)
01.09.2009 09:32 22,4 C 19,3 C 1,4 UV-I 1,8 C 52 % 70 % 51 % 1009,4 hPa 0,0 l/m 1,4 km/h (1 Bft) 0 min 0,0 km/h (0 Bft)
01.09.2009 09:34 22,4 C 19,5 C 1,4 UV-I 1,7 C 52 % 70 % 49 % 1009,4 hPa 0,0 l/m 1,4 km/h (1 Bft) 0 min 0,0 km/h (0 Bft)
01.09.2009 09:36 22,4 C 19,4 C 1,4 UV-I 2,0 C 52 % 70 % 57 % 1009,7 hPa 0,0 l/m 1,4 km/h (1 Bft) 0 min 6,5 km/h (2 Bft)
01.09.2009 09:40 22,4 C 19,6 C 1,4 UV-I 2,2 C 52 % 69 % 63 % 1009,7 hPa 0,0 l/m 1,0 km/h (0 Bft) 0 min 6,5 km/h (2 Bft)
01.09.2009 09:42 22,5 C 19,8 C 1,6 UV-I 2,3 C 53 % 70 % 66 % 1009,7 hPa 0,0 l/m 1,2 km/h (1 Bft) 0 min 5,5 km/h (1 Bft)
01.09.2009 09:44 22,5 C 19,9 C 1,6 UV-I 2,5 C 52 % 69 % 71 % 1009,7 hPa 0,0 l/m 1,2 km/h (1 Bft) 0 min 5,5 km/h (1 Bft)
01.09.2009 09:46 22,5 C 20,0 C 1,6 UV-I 2,9 C 53 % 70 % 83 % 1009,7 hPa 0,0 l/m 1,7 km/h (1 Bft) 2 min 7,2 km/h (2 Bft)
01.09.2009 09:48 22,5 C 20,2 C 2,0 UV-I 3,0 C 52 % 70 % 86 % 1009,7 hPa 0,0 l/m 1,9 km/h (1 Bft) 2 min 7,2 km/h (2 Bft)
01.09.2009 09:50 22,6 C 20,5 C 2,0 UV-I 3,4 C 53 % 70 % 97 % 1009,7 hPa 0,0 l/m 2,6 km/h (1 Bft) 2 min 9,6 km/h (2 Bft)
01.09.2009 09:52 22,6 C 20,7 C 2,0 UV-I 4,0 C 53 % 69 % 100 % 1009,7 hPa 0,0 l/m 3,4 km/h (1 Bft) 2 min 11,8 km/h (2 Bft)
01.09.2009 09:54 22,6 C 20,9 C 2,0 UV-I 4,9 C 53 % 68 % 100 % 1009,7 hPa 0,0 l/m 4,6 km/h (1 Bft) 2 min 9,9 km/h (2 Bft)
01.09.2009 09:56 22,6 C 21,1 C 2,0 UV-I 5,0 C 53 % 67 % 100 % 1010,2 hPa 0,0 l/m 5,1 km/h (1 Bft) 2 min 9,9 km/h (2 Bft)
01.09.2009 09:58 22,7 C 21,5 C 2,2 UV-I 4,9 C 53 % 66 % 100 % 1010,2 hPa 0,0 l/m 6,0 km/h (2 Bft) 2 min 9,9 km/h (2 Bft)
01.09.2009 10:00 22,6 C 21,7 C 2,2 UV-I 5,1 C 53 % 63 % 100 % 1010,2 hPa 0,0 l/m 7,2 km/h (2 Bft) 2 min 20,5 km/h (4 Bft)
01.09.2009 10:02 22,7 C 22,0 C 2,2 UV-I 5,1 C 53 % 62 % 100 % 1010,2 hPa 0,0 l/m 8,2 km/h (2 Bft) 2 min 20,5 km/h (4 Bft)
01.09.2009 10:04 22,7 C 22,2 C 2,1 UV-I 4,4 C 53 % 61 % 100 % 1010,2 hPa 0,0 l/m 9,4 km/h (2 Bft) 2 min 14,2 km/h (3 Bft)
01.09.2009 10:06 22,7 C 22,4 C 2,1 UV-I 3,9 C 53 % 61 % 100 % 1010,2 hPa 0,0 l/m 9,4 km/h (2 Bft) 2 min 14,2 km/h (3 Bft)
01.09.2009 10:10 22,8 C 22,5 C 0,9 UV-I 3,1 C 53 % 61 % 89 % 1010,2 hPa 0,0 l/m 8,7 km/h (2 Bft) 2 min 23,8 km/h (4 Bft)
01.09.2009 10:12 22,8 C 22,7 C 0,9 UV-I 2,7 C 53 % 59 % 77 % 1010,2 hPa 0,0 l/m 7,9 km/h (2 Bft) 0 min 25,0 km/h (4 Bft)
01.09.2009 10:14 22,8 C 22,6 C 0,6 UV-I 2,5 C 53 % 59 % 71 % 1010,2 hPa 0,0 l/m 6,7 km/h (2 Bft) 0 min 10,6 km/h (2 Bft)
01.09.2009 10:16 22,8 C 22,8 C 0,6 UV-I 2,0 C 53 % 58 % 57 % 1010,9 hPa 0,0 l/m 7,0 km/h (2 Bft) 0 min 10,6 km/h (2 Bft)
01.09.2009 10:18 22,8 C 22,8 C 0,5 UV-I 1,9 C 53 % 58 % 54 % 1010,9 hPa 0,0 l/m 7,5 km/h (2 Bft) 0 min 9,9 km/h (2 Bft)
01.09.2009 10:22 22,8 C 22,8 C 0,5 UV-I 1,6 C 53 % 58 % 46 % 1010,9 hPa 0,0 l/m 7,2 km/h (2 Bft) 0 min 25,7 km/h (4 Bft)
01.09.2009 10:24 22,8 C 22,9 C 0,7 UV-I 1,4 C 53 % 57 % 40 % 1010,9 hPa 0,0 l/m 7,9 km/h (2 Bft) 0 min 12,5 km/h (3 Bft)
01.09.2009 10:26 22,9 C 23,0 C 0,7 UV-I 1,1 C 53 % 57 % 31 % 1010,9 hPa 0,0 l/m 7,5 km/h (2 Bft) 0 min 8,7 km/h (2 Bft)
01.09.2009 10:28 22,9 C 23,1 C 0,3 UV-I 0,9 C 53 % 57 % 26 % 1010,9 hPa 0,0 l/m 7,2 km/h (2 Bft) 0 min 7,7 km/h (2 Bft)
01.09.2009 10:30 22,9 C 23,1 C 0,3 UV-I 0,7 C 53 % 57 % 20 % 1010,9 hPa 0,0 l/m 7,2 km/h (2 Bft) 0 min 7,7 km/h (2 Bft)
01.09.2009 10:36 22,9 C 23,0 C 0,1 UV-I 0,6 C 53 % 57 % 17 % 1011,2 hPa 0,0 l/m 6,3 km/h (2 Bft) 0 min 11,8 km/h (2 Bft)
01.09.2009 10:38 23,0 C 23,1 C 0,4 UV-I 0,4 C 53 % 57 % 11 % 1011,2 hPa 0,0 l/m 5,5 km/h (1 Bft) 0 min 10,8 km/h (2 Bft)
01.09.2009 10:42 23,0 C 23,1 C 0,4 UV-I 0,3 C 53 % 57 % 9 % 1011,2 hPa 0,0 l/m 5,3 km/h (1 Bft) 0 min 8,4 km/h (2 Bft)
01.09.2009 10:44 23,0 C 23,1 C 0,6 UV-I 0,3 C 53 % 56 % 9 % 1011,2 hPa 0,0 l/m 5,1 km/h (1 Bft) 0 min 8,4 km/h (2 Bft)
01.09.2009 10:46 23,0 C 23,2 C 0,6 UV-I 0,2 C 53 % 56 % 6 % 1011,2 hPa 0,0 l/m 5,5 km/h (1 Bft) 0 min 8,2 km/h (2 Bft)
01.09.2009 10:48 23,0 C 23,2 C 0,1 UV-I 0,2 C 53 % 56 % 6 % 1011,2 hPa 0,0 l/m 5,5 km/h (1 Bft) 0 min 9,9 km/h (2 Bft)
01.09.2009 10:50 23,0 C 23,2 C 0,1 UV-I 0,2 C 53 % 55 % 6 % 1011,2 hPa 0,0 l/m 6,0 km/h (2 Bft) 0 min 13,0 km/h (3 Bft)
01.09.2009 10:52 23,0 C 23,2 C 0,1 UV-I 0,2 C 53 % 55 % 6 % 1011,2 hPa 0,0 l/m 6,7 km/h (2 Bft) 0 min 13,0 km/h (3 Bft)
01.09.2009 10:54 23,0 C 23,2 C 0,3 UV-I 0,1 C 53 % 55 % 3 % 1011,2 hPa 0,0 l/m 6,7 km/h (2 Bft) 0 min 6,0 km/h (2 Bft)
01.09.2009 10:56 23,0 C 23,2 C 0,3 UV-I 0,1 C 53 % 55 % 3 % 1011,2 hPa 0,0 l/m 6,5 km/h (2 Bft) 0 min 8,4 km/h (2 Bft)
01.09.2009 10:58 23,0 C 23,3 C 0,2 UV-I 0,0 C 53 % 55 % 0 % 1011,2 hPa 0,0 l/m 6,5 km/h (2 Bft) 0 min 11,3 km/h (2 Bft)
01.09.2009 11:00 23,0 C 23,3 C 0,2 UV-I 0,0 C 53 % 54 % 0 % 1011,2 hPa 0,0 l/m 6,5 km/h (2 Bft) 0 min 13,0 km/h (3 Bft)
01.09.2009 11:02 23,0 C 23,2 C 0,2 UV-I 0,0 C 53 % 55 % 0 % 1011,2 hPa 0,0 l/m 6,0 km/h (2 Bft) 0 min 3,1 km/h (1 Bft)
01.09.2009 11:04 23,0 C 23,2 C 0,7 UV-I 0,0 C 53 % 55 % 0 % 1011,2 hPa 0,0 l/m 5,5 km/h (1 Bft) 0 min 10,6 km/h (2 Bft)
01.09.2009 11:08 23,0 C 23,2 C 0,7 UV-I 0,0 C 53 % 54 % 0 % 1011,2 hPa 0,0 l/m 6,3 km/h (2 Bft) 0 min 12,5 km/h (3 Bft)
01.09.2009 11:10 23,0 C 23,3 C 0,7 UV-I 0,0 C 53 % 54 % 0 % 1011,2 hPa 0,0 l/m 6,0 km/h (2 Bft) 0 min 10,1 km/h (2 Bft)
01.09.2009 11:12 23,1 C 23,2 C 0,7 UV-I 0,0 C 52 % 55 % 0 % 1011,2 hPa 0,0 l/m 6,0 km/h (2 Bft) 0 min 8,7 km/h (2 Bft)
01.09.2009 11:14 23,1 C 23,2 C 0,3 UV-I 0,0 C 52 % 55 % 0 % 1011,2 hPa 0,0 l/m 5,5 km/h (1 Bft) 0 min 5,8 km/h (2 Bft)
01.09.2009 11:18 23,1 C 23,1 C 0,3 UV-I 0,1 C 52 % 55 % 3 % 1011,2 hPa 0,0 l/m 3,8 km/h (1 Bft) 0 min 4,1 km/h (1 Bft)
01.09.2009 11:20 23,1 C 23,1 C 0,3 UV-I 0,0 C 52 % 55 % 0 % 1011,2 hPa 0,0 l/m 4,3 km/h (1 Bft) 0 min 12,3 km/h (3 Bft)
01.09.2009 11:22 23,1 C 23,0 C 0,3 UV-I 0,0 C 52 % 54 % 0 % 1011,2 hPa 0,0 l/m 4,3 km/h (1 Bft) 0 min 12,3 km/h (3 Bft)
01.09.2009 11:24 23,1 C 23,1 C 0,3 UV-I 0,0 C 52 % 55 % 0 % 1011,2 hPa 0,0 l/m 4,1 km/h (1 Bft) 0 min 4,3 km/h (1 Bft)
01.09.2009 11:26 23,1 C 23,1 C 0,3 UV-I 0,0 C 52 % 55 % 0 % 1011,2 hPa 0,0 l/m 4,6 km/h (1 Bft) 0 min 5,3 km/h (1 Bft)
01.09.2009 11:28 23,1 C 23,1 C 0,2 UV-I 0,0 C 52 % 55 % 0 % 1011,2 hPa 0,0 l/m 5,3 km/h (1 Bft) 0 min 7,0 km/h (2 Bft)
01.09.2009 11:30 23,1 C 23,0 C 0,2 UV-I 0,0 C 52 % 55 % 0 % 1011,2 hPa 0,0 l/m 4,1 km/h (1 Bft) 0 min 7,0 km/h (2 Bft)
01.09.2009 11:34 23,1 C 22,9 C 0,1 UV-I 0,0 C 52 % 56 % 0 % 1011,2 hPa 0,0 l/m 3,4 km/h (1 Bft) 0 min 7,0 km/h (2 Bft)
01.09.2009 11:36 23,1 C 22,8 C 0,1 UV-I 0,0 C 52 % 55 % 0 % 1010,9 hPa 0,0 l/m 3,6 km/h (1 Bft) 0 min 7,0 km/h (2 Bft)
01.09.2009 11:38 23,1 C 22,8 C 0,4 UV-I 0,0 C 52 % 55 % 0 % 1010,9 hPa 0,0 l/m 3,4 km/h (1 Bft) 0 min 4,8 km/h (1 Bft)
01.09.2009 11:40 23,1 C 22,9 C 0,4 UV-I 0,0 C 52 % 56 % 0 % 1010,9 hPa 0,0 l/m 3,1 km/h (1 Bft) 0 min 4,8 km/h (1 Bft)
01.09.2009 11:42 23,1 C 22,9 C 0,4 UV-I 0,0 C 52 % 56 % 0 % 1010,9 hPa 0,0 l/m 2,9 km/h (1 Bft) 0 min 5,5 km/h (1 Bft)
01.09.2009 11:44 23,1 C 22,8 C 0,5 UV-I 0,0 C 52 % 56 % 0 % 1010,9 hPa 0,0 l/m 2,6 km/h (1 Bft) 0 min 5,5 km/h (1 Bft)
01.09.2009 11:46 23,1 C 22,8 C 0,5 UV-I 0,0 C 52 % 57 % 0 % 1010,9 hPa 0,0 l/m 2,2 km/h (1 Bft) 0 min 0,0 km/h (0 Bft)
01.09.2009 11:48 23,1 C 22,7 C 0,6 UV-I 0,0 C 52 % 57 % 0 % 1010,9 hPa 0,0 l/m 1,9 km/h (1 Bft) 0 min 0,0 km/h (0 Bft)
01.09.2009 11:50 23,1 C 22,7 C 0,6 UV-I 0,0 C 52 % 57 % 0 % 1010,9 hPa 0,0 l/m 1,7 km/h (1 Bft) 0 min 0,0 km/h (0 Bft)
01.09.2009 11:52 23,1 C 22,7 C 0,6 UV-I 0,0 C 52 % 58 % 0 % 1010,9 hPa 0,0 l/m 1,4 km/h (1 Bft) 0 min 3,4 km/h (1 Bft)
01.09.2009 11:54 23,1 C 22,7 C 0,4 UV-I 0,0 C 52 % 59 % 0 % 1010,9 hPa 0,0 l/m 1,4 km/h (1 Bft) 0 min 8,4 km/h (2 Bft)
01.09.2009 11:58 23,2 C 22,7 C 0,5 UV-I 0,0 C 52 % 59 % 0 % 1011,2 hPa 0,0 l/m 2,4 km/h (1 Bft) 0 min 8,4 km/h (2 Bft)
01.09.2009 12:00 23,2 C 22,7 C 0,5 UV-I 0,0 C 52 % 58 % 0 % 1011,2 hPa 0,0 l/m 2,9 km/h (1 Bft) 0 min 5,5 km/h (1 Bft)
01.09.2009 12:02 23,2 C 22,7 C 0,5 UV-I 0,0 C 52 % 58 % 0 % 1011,2 hPa 0,0 l/m 2,9 km/h (1 Bft) 0 min 5,5 km/h (1 Bft)
01.09.2009 12:04 23,2 C 22,7 C 0,5 UV-I 0,0 C 52 % 58 % 0 % 1011,2 hPa 0,0 l/m 2,9 km/h (1 Bft) 0 min 0,0 km/h (0 Bft)
01.09.2009 12:08 23,2 C 22,7 C 1,2 UV-I 0,0 C 52 % 58 % 0 % 1011,2 hPa 0,0 l/m 1,7 km/h (1 Bft) 0 min 5,3 km/h (1 Bft)
01.09.2009 12:10 23,2 C 22,6 C 1,2 UV-I 0,0 C 53 % 58 % 0 % 1011,2 hPa 0,0 l/m 1,7 km/h (1 Bft) 0 min 0,0 km/h (0 Bft)
01.09.2009 12:12 23,2 C 22,6 C 1,2 UV-I 0,0 C 53 % 59 % 0 % 1011,2 hPa 0,0 l/m 1,2 km/h (1 Bft) 0 min 3,6 km/h (1 Bft)
01.09.2009 12:14 23,2 C 22,6 C 0,9 UV-I 0,1 C 53 % 58 % 3 % 1011,2 hPa 0,0 l/m 1,0 km/h (0 Bft) 0 min 4,8 km/h (1 Bft)
01.09.2009 12:16 23,2 C 22,6 C 0,9 UV-I 0,1 C 53 % 58 % 3 % 1011,1 hPa 0,0 l/m 1,2 km/h (1 Bft) 0 min 4,8 km/h (1 Bft)
01.09.2009 12:18 23,2 C 22,7 C 0,8 UV-I 0,0 C 53 % 59 % 0 % 1011,1 hPa 0,0 l/m 1,0 km/h (0 Bft) 0 min 4,3 km/h (1 Bft)
01.09.2009 12:20 23,2 C 22,7 C 0,8 UV-I 0,0 C 53 % 59 % 0 % 1011,1 hPa 0,0 l/m 1,2 km/h (1 Bft) 0 min 5,3 km/h (1 Bft)
01.09.2009 12:22 23,2 C 22,7 C 0,8 UV-I 0,0 C 53 % 59 % 0 % 1011,1 hPa 0,0 l/m 1,4 km/h (1 Bft) 0 min 5,3 km/h (1 Bft)
01.09.2009 12:24 23,2 C 22,5 C 0,9 UV-I 0,3 C 53 % 59 % 9 % 1011,1 hPa 0,0 l/m 1,7 km/h (1 Bft) 0 min 5,8 km/h (2 Bft)
01.09.2009 12:26 23,2 C 22,7 C 0,9 UV-I 0,2 C 53 % 59 % 6 % 1011,1 hPa 0,0 l/m 1,7 km/h (1 Bft) 0 min 5,8 km/h (2 Bft)
01.09.2009 12:28 23,2 C 22,7 C 1,8 UV-I 0,4 C 53 % 59 % 11 % 1011,1 hPa 0,0 l/m 2,2 km/h (1 Bft) 0 min 5,1 km/h (1 Bft)
01.09.2009 12:32 23,2 C 22,7 C 1,8 UV-I 1,0 C 53 % 59 % 29 % 1011,1 hPa 0,0 l/m 3,4 km/h (1 Bft) 0 min 13,0 km/h (3 Bft)
01.09.2009 12:34 23,2 C 22,8 C 3,6 UV-I 1,3 C 53 % 59 % 37 % 1011,1 hPa 0,0 l/m 4,8 km/h (1 Bft) 0 min 13,0 km/h (3 Bft)
01.09.2009 12:36 23,3 C 22,9 C 3,6 UV-I 1,4 C 53 % 59 % 40 % 1011,8 hPa 0,0 l/m 5,3 km/h (1 Bft) 0 min 8,4 km/h (2 Bft)
01.09.2009 12:38 23,3 C 22,9 C 3,9 UV-I 1,8 C 53 % 59 % 51 % 1011,8 hPa 0,0 l/m 5,3 km/h (1 Bft) 0 min 6,5 km/h (2 Bft)
01.09.2009 12:42 23,2 C 23,1 C 3,9 UV-I 1,9 C 53 % 57 % 54 % 1011,8 hPa 0,0 l/m 6,7 km/h (2 Bft) 0 min 8,9 km/h (2 Bft)
01.09.2009 12:44 23,2 C 23,2 C 2,9 UV-I 1,7 C 53 % 56 % 49 % 1011,8 hPa 0,0 l/m 7,0 km/h (2 Bft) 0 min 13,2 km/h (3 Bft)
01.09.2009 12:46 23,2 C 23,2 C 2,9 UV-I 1,5 C 53 % 56 % 43 % 1011,8 hPa 0,0 l/m 6,7 km/h (2 Bft) 0 min 13,2 km/h (3 Bft)
01.09.2009 12:48 23,2 C 23,2 C 1,4 UV-I 1,3 C 53 % 56 % 37 % 1011,8 hPa 0,0 l/m 7,7 km/h (2 Bft) 0 min 12,3 km/h (3 Bft)
01.09.2009 12:50 23,2 C 23,2 C 1,4 UV-I 1,0 C 53 % 56 % 29 % 1011,8 hPa 0,0 l/m 8,2 km/h (2 Bft) 0 min 12,3 km/h (3 Bft)
01.09.2009 12:52 23,2 C 23,1 C 1,4 UV-I 1,0 C 53 % 56 % 29 % 1011,8 hPa 0,0 l/m 7,5 km/h (2 Bft) 0 min 7,9 km/h (2 Bft)
01.09.2009 12:54 23,2 C 23,2 C 0,9 UV-I 0,6 C 53 % 56 % 17 % 1011,8 hPa 0,0 l/m 7,7 km/h (2 Bft) 0 min 6,7 km/h (2 Bft)
01.09.2009 12:56 23,2 C 23,1 C 0,9 UV-I 0,5 C 53 % 56 % 14 % 1011,9 hPa 0,0 l/m 7,2 km/h (2 Bft) 0 min 8,9 km/h (2 Bft)
01.09.2009 12:58 23,2 C 23,1 C 0,5 UV-I 0,4 C 53 % 56 % 11 % 1011,9 hPa 0,0 l/m 6,5 km/h (2 Bft) 0 min 4,3 km/h (1 Bft)
01.09.2009 13:02 23,2 C 23,1 C 0,5 UV-I 0,2 C 53 % 56 % 6 % 1011,9 hPa 0,0 l/m 5,5 km/h (1 Bft) 0 min 7,2 km/h (2 Bft)
01.09.2009 13:04 23,2 C 23,1 C 0,7 UV-I 0,1 C 53 % 56 % 3 % 1011,9 hPa 0,0 l/m 5,3 km/h (1 Bft) 0 min 6,3 km/h (2 Bft)
01.09.2009 13:06 23,4 C 23,1 C 0,7 UV-I 0,1 C 53 % 56 % 3 % 1011,9 hPa 0,0 l/m 5,5 km/h (1 Bft) 0 min 10,8 km/h (2 Bft)
01.09.2009 13:08 23,2 C 23,1 C 0,9 UV-I 0,1 C 53 % 56 % 3 % 1011,9 hPa 0,0 l/m 5,1 km/h (1 Bft) 0 min 10,8 km/h (2 Bft)
01.09.2009 13:10 23,4 C 23,0 C 0,9 UV-I 0,1 C 53 % 56 % 3 % 1011,9 hPa 0,0 l/m 5,3 km/h (1 Bft) 0 min 5,1 km/h (1 Bft)
01.09.2009 13:12 23,4 C 23,1 C 0,9 UV-I 0,1 C 53 % 56 % 3 % 1011,9 hPa 0,0 l/m 4,8 km/h (1 Bft) 0 min 5,1 km/h (1 Bft)
01.09.2009 13:14 23,4 C 23,1 C 0,9 UV-I 0,1 C 53 % 56 % 3 % 1011,9 hPa 0,0 l/m 4,3 km/h (1 Bft) 0 min 4,6 km/h (1 Bft)
01.09.2009 13:16 23,4 C 23,1 C 0,9 UV-I 0,0 C 53 % 56 % 0 % 1011,9 hPa 0,0 l/m 4,3 km/h (1 Bft) 0 min 6,3 km/h (2 Bft)
01.09.2009 13:18 23,4 C 23,1 C 0,1 UV-I 0,0 C 53 % 56 % 0 % 1011,9 hPa 0,0 l/m 3,8 km/h (1 Bft) 0 min 10,6 km/h (2 Bft)
01.09.2009 13:20 23,4 C 23,0 C 0,1 UV-I 0,0 C 53 % 56 % 0 % 1011,9 hPa 0,0 l/m 4,1 km/h (1 Bft) 0 min 12,0 km/h (2 Bft)
01.09.2009 13:22 23,4 C 23,0 C 0,1 UV-I 0,0 C 53 % 56 % 0 % 1011,9 hPa 0,0 l/m 4,3 km/h (1 Bft) 0 min 12,0 km/h (2 Bft)
01.09.2009 13:24 23,4 C 23,1 C 0,1 UV-I 0,0 C 53 % 56 % 0 % 1011,9 hPa 0,0 l/m 4,3 km/h (1 Bft) 0 min 7,7 km/h (2 Bft)
01.09.2009 13:26 23,4 C 23,0 C 0,1 UV-I 0,0 C 52 % 57 % 0 % 1011,9 hPa 0,0 l/m 4,6 km/h (1 Bft) 0 min 5,3 km/h (1 Bft)
01.09.2009 13:30 23,4 C 22,9 C 0,2 UV-I 0,0 C 53 % 57 % 0 % 1011,9 hPa 0,0 l/m 4,6 km/h (1 Bft) 0 min 8,2 km/h (2 Bft)
01.09.2009 13:32 23,4 C 22,8 C 0,2 UV-I 0,0 C 53 % 56 % 0 % 1011,9 hPa 0,0 l/m 4,6 km/h (1 Bft) 0 min 8,2 km/h (2 Bft)
01.09.2009 13:34 23,4 C 22,7 C 0,5 UV-I 0,0 C 53 % 57 % 0 % 1011,9 hPa 0,0 l/m 4,6 km/h (1 Bft) 0 min 8,7 km/h (2 Bft)
01.09.2009 13:36 23,4 C 22,7 C 0,5 UV-I 0,0 C 53 % 57 % 0 % 1011,8 hPa 0,0 l/m 4,6 km/h (1 Bft) 0 min 8,7 km/h (2 Bft)
01.09.2009 13:38 23,4 C 22,6 C 0,4 UV-I 0,0 C 53 % 57 % 0 % 1011,8 hPa 0,0 l/m 4,6 km/h (1 Bft) 0 min 7,2 km/h (2 Bft)
01.09.2009 13:42 23,4 C 22,3 C 0,4 UV-I 0,0 C 53 % 57 % 0 % 1011,8 hPa 0,0 l/m 4,1 km/h (1 Bft) 0 min 7,5 km/h (2 Bft)
01.09.2009 13:44 23,4 C 22,3 C 0,5 UV-I 0,0 C 53 % 58 % 0 % 1011,8 hPa 0,0 l/m 3,4 km/h (1 Bft) 0 min 3,6 km/h (1 Bft)
01.09.2009 13:46 23,4 C 22,2 C 0,5 UV-I 0,0 C 53 % 58 % 0 % 1011,8 hPa 0,0 l/m 3,4 km/h (1 Bft) 0 min 2,6 km/h (1 Bft)
01.09.2009 13:48 23,4 C 22,1 C 0,2 UV-I 0,0 C 53 % 58 % 0 % 1011,8 hPa 0,0 l/m 3,4 km/h (1 Bft) 0 min 5,8 km/h (2 Bft)
01.09.2009 13:50 23,2 C 22,1 C 0,2 UV-I 0,0 C 53 % 58 % 0 % 1011,8 hPa 0,0 l/m 3,4 km/h (1 Bft) 0 min 5,3 km/h (1 Bft)
01.09.2009 13:52 23,4 C 22,1 C 0,2 UV-I 0,0 C 53 % 59 % 0 % 1011,8 hPa 0,0 l/m 3,1 km/h (1 Bft) 0 min 5,3 km/h (1 Bft)
01.09.2009 13:58 23,2 C 21,9 C 0,2 UV-I 0,0 C 53 % 59 % 0 % 1012,3 hPa 0,0 l/m 4,1 km/h (1 Bft) 0 min 11,5 km/h (2 Bft)
01.09.2009 14:00 23,2 C 21,7 C 0,2 UV-I 0,0 C 53 % 59 % 0 % 1012,3 hPa 0,0 l/m 4,6 km/h (1 Bft) 0 min 11,5 km/h (2 Bft)
01.09.2009 14:02 23,2 C 21,7 C 0,2 UV-I 0,0 C 53 % 60 % 0 % 1012,3 hPa 0,0 l/m 4,8 km/h (1 Bft) 0 min 5,8 km/h (2 Bft)
01.09.2009 14:04 23,2 C 21,6 C 0,0 UV-I 0,0 C 53 % 61 % 0 % 1012,3 hPa 0,0 l/m 5,1 km/h (1 Bft) 0 min 9,1 km/h (2 Bft)
01.09.2009 14:08 23,2 C 21,3 C 0,0 UV-I 0,0 C 53 % 63 % 0 % 1012,3 hPa 0,1 l/m 3,8 km/h (1 Bft) 0 min 9,1 km/h (2 Bft)
01.09.2009 14:12 23,2 C 21,2 C 0,0 UV-I 0,0 C 54 % 64 % 0 % 1012,3 hPa 0,0 l/m 2,2 km/h (1 Bft) 0 min 6,7 km/h (2 Bft)
01.09.2009 14:14 23,2 C 21,0 C 0,2 UV-I 0,0 C 54 % 65 % 0 % 1012,3 hPa 0,0 l/m 1,7 km/h (1 Bft) 0 min 6,7 km/h (2 Bft)
01.09.2009 14:16 23,2 C 20,9 C 0,2 UV-I 0,0 C 54 % 66 % 0 % 1012,5 hPa 0,0 l/m 1,4 km/h (1 Bft) 0 min 0,0 km/h (0 Bft)
01.09.2009 14:18 23,2 C 20,8 C 0,2 UV-I 0,0 C 54 % 66 % 0 % 1012,5 hPa 0,1 l/m 1,4 km/h (1 Bft) 0 min 3,6 km/h (1 Bft)
01.09.2009 14:20 23,2 C 20,7 C 0,2 UV-I 0,0 C 55 % 67 % 0 % 1012,5 hPa 0,0 l/m 1,2 km/h (1 Bft) 0 min 3,6 km/h (1 Bft)
01.09.2009 14:24 23,2 C 20,5 C 0,2 UV-I 0,0 C 55 % 68 % 0 % 1012,5 hPa 0,0 l/m 1,0 km/h (0 Bft) 0 min 0,0 km/h (0 Bft)
01.09.2009 14:26 23,2 C 20,4 C 0,2 UV-I 0,0 C 55 % 68 % 0 % 1012,5 hPa 0,0 l/m 1,0 km/h (0 Bft) 0 min 0,0 km/h (0 Bft)
01.09.2009 14:28 23,2 C 20,4 C 0,0 UV-I 0,0 C 55 % 68 % 0 % 1012,5 hPa 0,0 l/m 0,7 km/h (0 Bft) 0 min 2,4 km/h (1 Bft)
01.09.2009 14:30 23,2 C 20,3 C 0,0 UV-I 0,0 C 55 % 69 % 0 % 1012,5 hPa 0,0 l/m 0,7 km/h (0 Bft) 0 min 2,4 km/h (1 Bft)
01.09.2009 14:34 23,2 C 20,2 C 0,1 UV-I 0,0 C 56 % 70 % 0 % 1012,5 hPa 0,0 l/m 1,0 km/h (0 Bft) 0 min 7,2 km/h (2 Bft)
01.09.2009 14:36 23,2 C 20,0 C 0,1 UV-I 0,0 C 56 % 70 % 0 % 1012,2 hPa 0,0 l/m 1,2 km/h (1 Bft) 0 min 0,0 km/h (0 Bft)
01.09.2009 14:38 23,1 C 20,1 C 0,0 UV-I 0,0 C 56 % 70 % 0 % 1012,2 hPa 0,0 l/m 1,2 km/h (1 Bft) 0 min 0,0 km/h (0 Bft)
01.09.2009 14:40 23,1 C 20,0 C 0,0 UV-I 0,0 C 56 % 70 % 0 % 1012,2 hPa 0,0 l/m 1,0 km/h (0 Bft) 0 min 0,0 km/h (0 Bft)
01.09.2009 14:42 23,1 C 19,9 C 0,0 UV-I 0,0 C 56 % 71 % 0 % 1012,2 hPa 0,0 l/m 1,0 km/h (0 Bft) 0 min 3,6 km/h (1 Bft)
01.09.2009 14:44 23,1 C 19,8 C 0,0 UV-I 0,0 C 56 % 71 % 0 % 1012,2 hPa 0,0 l/m 0,7 km/h (0 Bft) 0 min 3,6 km/h (1 Bft)
01.09.2009 14:46 23,1 C 19,9 C 0,0 UV-I 0,0 C 56 % 71 % 0 % 1012,2 hPa 0,0 l/m 0,2 km/h (0 Bft) 0 min 0,0 km/h (0 Bft)
01.09.2009 14:48 23,1 C 19,7 C 0,0 UV-I 0,0 C 56 % 72 % 0 % 1012,2 hPa 0,0 l/m 0,2 km/h (0 Bft) 0 min 0,0 km/h (0 Bft)
01.09.2009 14:50 23,1 C 19,6 C 0,0 UV-I 0,0 C 56 % 72 % 0 % 1012,2 hPa 0,0 l/m 0,2 km/h (0 Bft) 0 min 0,0 km/h (0 Bft)
01.09.2009 14:52 23,0 C 19,7 C 0,0 UV-I 0,0 C 57 % 72 % 0 % 1012,2 hPa 0,0 l/m 0,5 km/h (0 Bft) 0 min 7,0 km/h (2 Bft)
01.09.2009 14:54 23,0 C 19,7 C 0,0 UV-I 0,0 C 57 % 72 % 0 % 1012,2 hPa 0,0 l/m 0,5 km/h (0 Bft) 0 min 2,6 km/h (1 Bft)
01.09.2009 14:56 23,0 C 19,6 C 0,0 UV-I 0,0 C 57 % 73 % 0 % 1013,1 hPa 0,0 l/m 0,5 km/h (0 Bft) 0 min 2,6 km/h (1 Bft)
01.09.2009 14:58 23,0 C 19,5 C 0,0 UV-I 0,0 C 57 % 73 % 0 % 1013,1 hPa 0,0 l/m 0,7 km/h (0 Bft) 0 min 2,4 km/h (1 Bft)
01.09.2009 15:02 23,0 C 19,5 C 0,0 UV-I 0,0 C 57 % 73 % 0 % 1013,1 hPa 0,0 l/m 1,0 km/h (0 Bft) 0 min 2,6 km/h (1 Bft)
01.09.2009 15:08 23,0 C 19,2 C 0,0 UV-I 0,0 C 57 % 75 % 0 % 1013,1 hPa 0,1 l/m 0,7 km/h (0 Bft) 0 min 2,6 km/h (1 Bft)
01.09.2009 15:10 23,0 C 19,2 C 0,0 UV-I 0,0 C 57 % 75 % 0 % 1013,1 hPa 0,1 l/m 1,2 km/h (1 Bft) 0 min 2,9 km/h (1 Bft)
01.09.2009 15:12 22,9 C 19,2 C 0,0 UV-I 0,0 C 58 % 75 % 0 % 1013,1 hPa 0,0 l/m 1,0 km/h (0 Bft) 0 min 2,9 km/h (1 Bft)
01.09.2009 15:14 23,0 C 19,2 C 0,1 UV-I 0,0 C 58 % 76 % 0 % 1013,1 hPa 0,0 l/m 1,0 km/h (0 Bft) 0 min 2,6 km/h (1 Bft)
01.09.2009 15:16 23,0 C 19,0 C 0,1 UV-I 0,0 C 58 % 77 % 0 % 1013,0 hPa 0,0 l/m 1,0 km/h (0 Bft) 0 min 0,0 km/h (0 Bft)
01.09.2009 15:18 23,0 C 19,1 C 0,1 UV-I 0,0 C 58 % 77 % 0 % 1013,0 hPa 0,0 l/m 1,0 km/h (0 Bft) 0 min 0,0 km/h (0 Bft)
01.09.2009 15:20 22,9 C 19,0 C 0,1 UV-I 0,0 C 59 % 78 % 0 % 1013,0 hPa 0,0 l/m 0,7 km/h (0 Bft) 0 min 3,8 km/h (1 Bft)
01.09.2009 15:22 22,9 C 18,9 C 0,1 UV-I 0,0 C 59 % 78 % 0 % 1013,0 hPa 0,0 l/m 0,7 km/h (0 Bft) 0 min 0,0 km/h (0 Bft)
01.09.2009 15:24 22,9 C 18,9 C 0,1 UV-I 0,0 C 59 % 79 % 0 % 1013,0 hPa 0,0 l/m 0,5 km/h (0 Bft) 0 min 0,0 km/h (0 Bft)
01.09.2009 15:30 22,9 C 18,8 C 0,3 UV-I 0,0 C 60 % 80 % 0 % 1013,0 hPa 0,0 l/m 0,5 km/h (0 Bft) 0 min 3,8 km/h (1 Bft)
01.09.2009 15:32 22,9 C 18,8 C 0,3 UV-I 0,0 C 60 % 80 % 0 % 1013,0 hPa 0,0 l/m 0,2 km/h (0 Bft) 0 min 3,8 km/h (1 Bft)
01.09.2009 15:36 22,9 C 18,7 C 0,1 UV-I 0,0 C 60 % 81 % 0 % 1013,2 hPa 0,1 l/m 0,5 km/h (0 Bft) 0 min 3,6 km/h (1 Bft)
01.09.2009 15:38 22,9 C 18,6 C 0,4 UV-I 0,0 C 60 % 81 % 0 % 1013,2 hPa 0,0 l/m 0,7 km/h (0 Bft) 0 min 4,6 km/h (1 Bft)
01.09.2009 15:40 22,9 C 18,7 C 0,4 UV-I 0,0 C 60 % 82 % 0 % 1013,2 hPa 0,0 l/m 1,2 km/h (1 Bft) 0 min 4,6 km/h (1 Bft)
01.09.2009 15:42 22,9 C 18,7 C 0,4 UV-I 0,0 C 61 % 82 % 0 % 1013,2 hPa 0,0 l/m 1,2 km/h (1 Bft) 0 min 3,6 km/h (1 Bft)
01.09.2009 15:44 22,8 C 18,7 C 0,5 UV-I 0,0 C 61 % 82 % 0 % 1013,2 hPa 0,0 l/m 1,7 km/h (1 Bft) 0 min 3,6 km/h (1 Bft)
01.09.2009 15:48 22,8 C 18,7 C 0,3 UV-I 0,0 C 61 % 83 % 0 % 1013,2 hPa 0,0 l/m 1,4 km/h (1 Bft) 0 min 3,6 km/h (1 Bft)
01.09.2009 15:50 22,8 C 18,6 C 0,3 UV-I 0,0 C 61 % 84 % 0 % 1013,2 hPa 0,0 l/m 1,4 km/h (1 Bft) 0 min 6,7 km/h (2 Bft)
01.09.2009 15:52 22,8 C 18,7 C 0,3 UV-I 0,0 C 61 % 84 % 0 % 1013,2 hPa 0,0 l/m 2,2 km/h (1 Bft) 0 min 12,0 km/h (2 Bft)
01.09.2009 15:54 22,9 C 18,7 C 0,2 UV-I 0,0 C 61 % 84 % 0 % 1013,2 hPa 0,0 l/m 2,4 km/h (1 Bft) 0 min 12,0 km/h (2 Bft)
01.09.2009 15:56 22,8 C 18,7 C 0,2 UV-I 0,0 C 61 % 84 % 0 % 1012,9 hPa 0,0 l/m 2,4 km/h (1 Bft) 0 min 2,9 km/h (1 Bft)
01.09.2009 15:58 22,8 C 18,5 C 0,1 UV-I 0,0 C 62 % 84 % 0 % 1012,9 hPa 0,0 l/m 2,9 km/h (1 Bft) 0 min 5,8 km/h (2 Bft)
01.09.2009 16:00 22,8 C 18,5 C 0,1 UV-I 0,0 C 62 % 84 % 0 % 1012,9 hPa 0,0 l/m 3,1 km/h (1 Bft) 0 min 5,8 km/h (2 Bft)
01.09.2009 16:02 22,8 C 18,5 C 0,1 UV-I 0,0 C 62 % 84 % 0 % 1012,9 hPa 0,0 l/m 2,9 km/h (1 Bft) 0 min 0,0 km/h (0 Bft)
01.09.2009 16:04 22,8 C 18,5 C 0,2 UV-I 0,0 C 62 % 84 % 0 % 1012,9 hPa 0,0 l/m 1,7 km/h (1 Bft) 0 min 0,0 km/h (0 Bft)
01.09.2009 16:06 22,8 C 18,4 C 0,2 UV-I 0,0 C 62 % 84 % 0 % 1012,9 hPa 0,0 l/m 1,7 km/h (1 Bft) 0 min 2,4 km/h (1 Bft)
01.09.2009 16:08 22,8 C 18,5 C 0,2 UV-I 0,0 C 62 % 84 % 0 % 1012,9 hPa 0,0 l/m 1,2 km/h (1 Bft) 0 min 2,4 km/h (1 Bft)
01.09.2009 16:12 22,8 C 18,4 C 0,2 UV-I 0,0 C 62 % 84 % 0 % 1012,9 hPa 0,0 l/m 0,7 km/h (0 Bft) 0 min 0,0 km/h (0 Bft)
01.09.2009 16:14 22,8 C 18,4 C 0,1 UV-I 0,0 C 62 % 84 % 0 % 1012,9 hPa 0,0 l/m 1,2 km/h (1 Bft) 0 min 7,7 km/h (2 Bft)
01.09.2009 16:16 22,8 C 18,4 C 0,1 UV-I 0,0 C 62 % 85 % 0 % 1013,2 hPa 0,0 l/m 1,7 km/h (1 Bft) 0 min 4,6 km/h (1 Bft)
01.09.2009 16:22 22,8 C 18,4 C 0,2 UV-I 0,0 C 63 % 85 % 0 % 1013,2 hPa 0,0 l/m 1,9 km/h (1 Bft) 0 min 4,6 km/h (1 Bft)
01.09.2009 16:24 22,8 C 18,5 C 0,2 UV-I 0,0 C 63 % 85 % 0 % 1013,2 hPa 0,0 l/m 1,7 km/h (1 Bft) 0 min 3,6 km/h (1 Bft)
01.09.2009 16:26 22,8 C 18,4 C 0,2 UV-I 0,0 C 63 % 85 % 0 % 1013,2 hPa 0,0 l/m 1,2 km/h (1 Bft) 0 min 0,0 km/h (0 Bft)
01.09.2009 16:28 22,8 C 18,4 C 0,0 UV-I 0,0 C 63 % 86 % 0 % 1013,2 hPa 0,0 l/m 1,0 km/h (0 Bft) 0 min 2,9 km/h (1 Bft)
01.09.2009 16:32 22,8 C 18,5 C 0,0 UV-I 0,0 C 63 % 86 % 0 % 1013,2 hPa 0,0 l/m 0,7 km/h (0 Bft) 0 min 2,9 km/h (1 Bft)
01.09.2009 16:34 22,8 C 18,5 C 0,2 UV-I 0,0 C 63 % 86 % 0 % 1013,2 hPa 0,0 l/m 1,0 km/h (0 Bft) 0 min 5,1 km/h (1 Bft)
01.09.2009 16:36 22,8 C 18,3 C 0,2 UV-I 0,0 C 63 % 86 % 0 % 1013,2 hPa 0,0 l/m 1,2 km/h (1 Bft) 0 min 5,1 km/h (1 Bft)
01.09.2009 16:38 22,8 C 18,4 C 0,1 UV-I 0,0 C 63 % 86 % 0 % 1013,2 hPa 0,0 l/m 1,2 km/h (1 Bft) 0 min 2,4 km/h (1 Bft)
01.09.2009 16:40 22,8 C 18,4 C 0,1 UV-I 0,0 C 64 % 86 % 0 % 1013,2 hPa 0,0 l/m 1,0 km/h (0 Bft) 0 min 0,0 km/h (0 Bft)
01.09.2009 16:46 22,8 C 18,4 C 0,1 UV-I 0,0 C 64 % 86 % 0 % 1013,2 hPa 0,0 l/m 0,2 km/h (0 Bft) 0 min 0,0 km/h (0 Bft)
01.09.2009 16:48 22,8 C 18,4 C 0,1 UV-I 0,0 C 64 % 86 % 0 % 1013,2 hPa 0,0 l/m 0,0 km/h (0 Bft) 0 min 0,0 km/h (0 Bft)
01.09.2009 16:52 22,8 C 18,4 C 0,1 UV-I 0,0 C 64 % 87 % 0 % 1013,2 hPa 0,0 l/m 0,0 km/h (0 Bft) 0 min 2,9 km/h (1 Bft)
01.09.2009 16:58 22,8 C 18,3 C 0,1 UV-I 0,0 C 64 % 87 % 0 % 1013,2 hPa 0,0 l/m 0,0 km/h (0 Bft) 0 min 2,6 km/h (1 Bft)
01.09.2009 17:00 22,7 C 18,3 C 0,1 UV-I 0,0 C 64 % 87 % 0 % 1013,2 hPa 0,0 l/m 0,2 km/h (0 Bft) 0 min 2,6 km/h (1 Bft)
01.09.2009 17:02 22,8 C 18,3 C 0,1 UV-I 0,0 C 64 % 87 % 0 % 1013,2 hPa 0,0 l/m 0,0 km/h (0 Bft) 0 min 2,4 km/h (1 Bft)
01.09.2009 17:06 22,7 C 18,3 C 0,0 UV-I 0,0 C 64 % 87 % 0 % 1013,2 hPa 0,0 l/m 0,0 km/h (0 Bft) 0 min 0,0 km/h (0 Bft)
01.09.2009 17:08 22,7 C 18,3 C 0,1 UV-I 0,0 C 64 % 87 % 0 % 1013,2 hPa 0,0 l/m 0,0 km/h (0 Bft) 0 min 0,0 km/h (0 Bft)
01.09.2009 17:10 22,7 C 18,3 C 0,1 UV-I 0,0 C 64 % 87 % 0 % 1013,2 hPa 0,0 l/m 0,0 km/h (0 Bft) 0 min 0,0 km/h (0 Bft)
01.09.2009 17:12 22,7 C 18,3 C 0,1 UV-I 0,0 C 64 % 87 % 0 % 1013,2 hPa 0,0 l/m 0,0 km/h (0 Bft) 0 min 0,0 km/h (0 Bft)
01.09.2009 17:18 22,7 C 18,3 C 0,0 UV-I 0,0 C 64 % 87 % 0 % 1013,1 hPa 0,0 l/m 0,2 km/h (0 Bft) 0 min 3,1 km/h (1 Bft)
01.09.2009 17:20 22,7 C 18,3 C 0,0 UV-I 0,0 C 64 % 87 % 0 % 1013,1 hPa 0,0 l/m 0,2 km/h (0 Bft) 0 min 3,1 km/h (1 Bft)
01.09.2009 17:22 22,7 C 18,3 C 0,0 UV-I 0,0 C 64 % 87 % 0 % 1013,1 hPa 0,0 l/m 0,2 km/h (0 Bft) 0 min 0,0 km/h (0 Bft)
01.09.2009 17:26 22,7 C 18,3 C 0,0 UV-I 0,0 C 64 % 87 % 0 % 1013,1 hPa 0,0 l/m 0,2 km/h (0 Bft) 0 min 0,0 km/h (0 Bft)
01.09.2009 17:28 22,7 C 18,3 C 0,0 UV-I 0,0 C 64 % 88 % 0 % 1013,1 hPa 0,0 l/m 0,5 km/h (0 Bft) 0 min 0,0 km/h (0 Bft)
01.09.2009 17:30 22,7 C 18,3 C 0,0 UV-I 0,0 C 64 % 88 % 0 % 1013,1 hPa 0,0 l/m 0,5 km/h (0 Bft) 0 min 0,0 km/h (0 Bft)
01.09.2009 17:32 22,7 C 18,3 C 0,0 UV-I 0,0 C 64 % 88 % 0 % 1013,1 hPa 0,0 l/m 0,5 km/h (0 Bft) 0 min 0,0 km/h (0 Bft)
01.09.2009 17:34 22,7 C 18,3 C 0,0 UV-I 0,0 C 65 % 88 % 0 % 1013,1 hPa 0,0 l/m 0,5 km/h (0 Bft) 0 min 0,0 km/h (0 Bft)
01.09.2009 17:36 22,7 C 18,3 C 0,0 UV-I 0,0 C 64 % 88 % 0 % 1012,8 hPa 0,0 l/m 0,5 km/h (0 Bft) 0 min 0,0 km/h (0 Bft)
01.09.2009 17:38 22,7 C 18,3 C 0,0 UV-I 0,0 C 64 % 88 % 0 % 1012,8 hPa 0,0 l/m 0,0 km/h (0 Bft) 0 min 0,0 km/h (0 Bft)
01.09.2009 17:40 22,7 C 18,2 C 0,0 UV-I 0,0 C 64 % 88 % 0 % 1012,8 hPa 0,0 l/m 0,0 km/h (0 Bft) 0 min 0,0 km/h (0 Bft)
01.09.2009 17:44 22,7 C 18,3 C 0,0 UV-I 0,0 C 64 % 88 % 0 % 1012,8 hPa 0,0 l/m 0,0 km/h (0 Bft) 0 min 0,0 km/h (0 Bft)
01.09.2009 17:48 22,7 C 18,3 C 0,0 UV-I 0,0 C 65 % 88 % 0 % 1012,8 hPa 0,0 l/m 0,0 km/h (0 Bft) 0 min 0,0 km/h (0 Bft)
01.09.2009 17:50 22,7 C 18,3 C 0,0 UV-I 0,0 C 65 % 88 % 0 % 1012,8 hPa 0,0 l/m 0,0 km/h (0 Bft) 0 min 0,0 km/h (0 Bft)
01.09.2009 17:52 22,7 C 18,3 C 0,0 UV-I 0,0 C 65 % 88 % 0 % 1012,8 hPa 0,0 l/m 0,0 km/h (0 Bft) 0 min 0,0 km/h (0 Bft)
01.09.2009 17:56 22,7 C 18,2 C 0,0 UV-I 0,0 C 65 % 88 % 0 % 1012,5 hPa 0,0 l/m 0,0 km/h (0 Bft) 0 min 0,0 km/h (0 Bft)
01.09.2009 17:58 22,6 C 18,2 C 0,0 UV-I 0,0 C 65 % 88 % 0 % 1012,5 hPa 0,0 l/m 0,0 km/h (0 Bft) 0 min 0,0 km/h (0 Bft)
01.09.2009 18:00 22,7 C 18,2 C 0,0 UV-I 0,0 C 65 % 88 % 0 % 1012,5 hPa 0,0 l/m 0,0 km/h (0 Bft) 0 min 0,0 km/h (0 Bft)
01.09.2009 18:02 22,7 C 18,2 C 0,0 UV-I 0,0 C 65 % 88 % 0 % 1012,5 hPa 0,0 l/m 0,0 km/h (0 Bft) 0 min 0,0 km/h (0 Bft)
01.09.2009 18:04 22,7 C 18,3 C 0,0 UV-I 0,0 C 65 % 88 % 0 % 1012,5 hPa 0,0 l/m 0,0 km/h (0 Bft) 0 min 0,0 km/h (0 Bft)
01.09.2009 18:08 22,7 C 18,3 C 0,0 UV-I 0,0 C 65 % 89 % 0 % 1012,5 hPa 0,0 l/m 0,0 km/h (0 Bft) 0 min 0,0 km/h (0 Bft)
01.09.2009 18:10 22,6 C 18,2 C 0,0 UV-I 0,0 C 65 % 89 % 0 % 1012,5 hPa 0,0 l/m 0,0 km/h (0 Bft) 0 min 0,0 km/h (0 Bft)
01.09.2009 18:12 22,7 C 18,2 C 0,0 UV-I 0,0 C 65 % 89 % 0 % 1012,5 hPa 0,1 l/m 0,0 km/h (0 Bft) 0 min 0,0 km/h (0 Bft)
01.09.2009 18:14 22,6 C 18,2 C 0,0 UV-I 0,0 C 65 % 89 % 0 % 1012,5 hPa 0,0 l/m 0,0 km/h (0 Bft) 0 min 0,0 km/h (0 Bft)
01.09.2009 18:18 22,6 C 18,2 C 0,0 UV-I 0,0 C 65 % 89 % 0 % 1012,7 hPa 0,0 l/m 0,0 km/h (0 Bft) 0 min 0,0 km/h (0 Bft)
01.09.2009 18:20 22,6 C 18,2 C 0,0 UV-I 0,0 C 65 % 89 % 0 % 1012,7 hPa 0,0 l/m 0,0 km/h (0 Bft) 0 min 0,0 km/h (0 Bft)
01.09.2009 18:22 22,6 C 18,2 C 0,0 UV-I 0,0 C 65 % 89 % 0 % 1012,7 hPa 0,0 l/m 0,0 km/h (0 Bft) 0 min 0,0 km/h (0 Bft)
01.09.2009 18:24 22,6 C 18,2 C 0,0 UV-I 0,0 C 65 % 89 % 0 % 1012,7 hPa 0,0 l/m 0,0 km/h (0 Bft) 0 min 0,0 km/h (0 Bft)
01.09.2009 18:32 22,6 C 18,3 C 0,0 UV-I 0,0 C 65 % 89 % 0 % 1012,7 hPa 0,0 l/m 0,5 km/h (0 Bft) 0 min 5,1 km/h (1 Bft)
01.09.2009 18:36 22,6 C 18,2 C 0,0 UV-I 0,0 C 65 % 90 % 0 % 1012,5 hPa 0,0 l/m 1,4 km/h (1 Bft) 0 min 4,6 km/h (1 Bft)
01.09.2009 18:38 22,6 C 18,1 C 0,0 UV-I 0,0 C 66 % 90 % 0 % 1012,5 hPa 0,0 l/m 1,4 km/h (1 Bft) 0 min 0,0 km/h (0 Bft)
01.09.2009 18:40 22,6 C 18,1 C 0,0 UV-I 0,0 C 66 % 90 % 0 % 1012,5 hPa 0,0 l/m 1,4 km/h (1 Bft) 0 min 0,0 km/h (0 Bft)
01.09.2009 18:42 22,6 C 18,1 C 0,0 UV-I 0,0 C 66 % 90 % 0 % 1012,5 hPa 0,0 l/m 1,2 km/h (1 Bft) 0 min 0,0 km/h (0 Bft)
01.09.2009 18:46 22,6 C 18,0 C 0,0 UV-I 0,0 C 66 % 90 % 0 % 1012,5 hPa 0,0 l/m 1,9 km/h (1 Bft) 0 min 4,1 km/h (1 Bft)
01.09.2009 18:48 22,6 C 18,0 C 0,0 UV-I 0,0 C 66 % 90 % 0 % 1012,5 hPa 0,0 l/m 1,9 km/h (1 Bft) 0 min 4,1 km/h (1 Bft)
01.09.2009 18:52 22,6 C 18,0 C 0,0 UV-I 0,0 C 66 % 90 % 0 % 1012,5 hPa 0,0 l/m 2,9 km/h (1 Bft) 0 min 4,1 km/h (1 Bft)
01.09.2009 18:54 22,6 C 18,1 C 0,0 UV-I 0,0 C 66 % 90 % 0 % 1012,5 hPa 0,0 l/m 2,9 km/h (1 Bft) 0 min 2,4 km/h (1 Bft)
01.09.2009 18:56 22,6 C 18,0 C 0,0 UV-I 0,0 C 65 % 90 % 0 % 1012,4 hPa 0,0 l/m 2,9 km/h (1 Bft) 0 min 5,5 km/h (1 Bft)
01.09.2009 19:00 22,5 C 18,0 C 0,0 UV-I 0,0 C 66 % 90 % 0 % 1012,4 hPa 0,0 l/m 2,9 km/h (1 Bft) 0 min 5,5 km/h (1 Bft)
01.09.2009 19:02 22,5 C 18,0 C 0,0 UV-I 0,0 C 66 % 90 % 0 % 1012,4 hPa 0,0 l/m 2,4 km/h (1 Bft) 0 min 2,6 km/h (1 Bft)
01.09.2009 19:08 22,5 C 17,9 C 0,0 UV-I 0,0 C 66 % 90 % 0 % 1012,4 hPa 0,0 l/m 1,4 km/h (1 Bft) 0 min 3,1 km/h (1 Bft)
01.09.2009 19:10 22,5 C 17,9 C 0,0 UV-I 0,0 C 66 % 90 % 0 % 1012,4 hPa 0,0 l/m 1,4 km/h (1 Bft) 0 min 0,0 km/h (0 Bft)
01.09.2009 19:12 22,5 C 17,9 C 0,0 UV-I 0,0 C 66 % 90 % 0 % 1012,4 hPa 0,0 l/m 1,0 km/h (0 Bft) 0 min 0,0 km/h (0 Bft)
01.09.2009 19:20 22,5 C 17,8 C 0,0 UV-I 0,0 C 66 % 90 % 0 % 1012,3 hPa 0,0 l/m 1,0 km/h (0 Bft) 0 min 4,8 km/h (1 Bft)
01.09.2009 19:22 22,5 C 17,9 C 0,0 UV-I 0,0 C 66 % 90 % 0 % 1012,3 hPa 0,0 l/m 1,0 km/h (0 Bft) 0 min 4,8 km/h (1 Bft)
01.09.2009 19:24 22,5 C 17,9 C 0,0 UV-I 0,0 C 66 % 90 % 0 % 1012,3 hPa 0,0 l/m 1,2 km/h (1 Bft) 0 min 0,0 km/h (0 Bft)
01.09.2009 19:30 22,5 C 17,7 C 0,0 UV-I 0,0 C 66 % 90 % 0 % 1012,3 hPa 0,0 l/m 1,4 km/h (1 Bft) 0 min 6,5 km/h (2 Bft)
01.09.2009 19:32 22,5 C 17,7 C 0,0 UV-I 0,0 C 66 % 90 % 0 % 1012,3 hPa 0,0 l/m 1,4 km/h (1 Bft) 0 min 6,5 km/h (2 Bft)
01.09.2009 19:36 22,4 C 17,7 C 0,0 UV-I 0,0 C 66 % 90 % 0 % 1012,4 hPa 0,0 l/m 1,0 km/h (0 Bft) 0 min 0,0 km/h (0 Bft)
01.09.2009 19:38 22,4 C 17,7 C 0,0 UV-I 0,0 C 66 % 90 % 0 % 1012,4 hPa 0,0 l/m 0,7 km/h (0 Bft) 0 min 0,0 km/h (0 Bft)
01.09.2009 19:40 22,4 C 17,7 C 0,0 UV-I 0,0 C 66 % 90 % 0 % 1012,4 hPa 0,0 l/m 0,7 km/h (0 Bft) 0 min 0,0 km/h (0 Bft)
01.09.2009 19:42 22,4 C 17,6 C 0,0 UV-I 0,0 C 66 % 90 % 0 % 1012,4 hPa 0,0 l/m 0,7 km/h (0 Bft) 0 min 0,0 km/h (0 Bft)
01.09.2009 19:44 22,4 C 17,7 C 0,0 UV-I 0,0 C 66 % 90 % 0 % 1012,4 hPa 0,0 l/m 1,2 km/h (1 Bft) 0 min 6,3 km/h (2 Bft)
01.09.2009 19:48 22,4 C 17,6 C 0,0 UV-I 0,0 C 66 % 90 % 0 % 1012,4 hPa 0,0 l/m 1,7 km/h (1 Bft) 0 min 6,3 km/h (2 Bft)
01.09.2009 19:52 22,4 C 17,7 C 0,0 UV-I 0,0 C 66 % 90 % 0 % 1012,4 hPa 0,0 l/m 1,7 km/h (1 Bft) 0 min 3,6 km/h (1 Bft)
01.09.2009 19:54 22,4 C 17,7 C 0,0 UV-I 0,0 C 66 % 90 % 0 % 1012,4 hPa 0,0 l/m 1,4 km/h (1 Bft) 0 min 3,4 km/h (1 Bft)
01.09.2009 20:00 22,4 C 17,6 C 0,0 UV-I 0,0 C 66 % 90 % 0 % 1012,2 hPa 0,0 l/m 1,0 km/h (0 Bft) 0 min 4,3 km/h (1 Bft)
01.09.2009 20:04 22,4 C 17,5 C 0,0 UV-I 0,0 C 66 % 90 % 0 % 1012,2 hPa 0,0 l/m 1,2 km/h (1 Bft) 0 min 6,3 km/h (2 Bft)
01.09.2009 20:06 22,4 C 17,5 C 0,0 UV-I 0,0 C 66 % 90 % 0 % 1012,2 hPa 0,0 l/m 1,4 km/h (1 Bft) 0 min 0,0 km/h (0 Bft)
01.09.2009 20:08 22,4 C 17,5 C 0,0 UV-I 0,0 C 66 % 90 % 0 % 1012,2 hPa 0,0 l/m 1,4 km/h (1 Bft) 0 min 0,0 km/h (0 Bft)
01.09.2009 20:10 22,4 C 17,5 C 0,0 UV-I 0,0 C 66 % 90 % 0 % 1012,2 hPa 0,0 l/m 1,7 km/h (1 Bft) 0 min 2,9 km/h (1 Bft)
01.09.2009 20:16 22,2 C 17,4 C 0,0 UV-I 0,0 C 66 % 90 % 0 % 1012,2 hPa 0,0 l/m 1,9 km/h (1 Bft) 0 min 7,7 km/h (2 Bft)
01.09.2009 20:20 22,2 C 17,5 C 0,0 UV-I 0,0 C 66 % 90 % 0 % 1012,2 hPa 0,0 l/m 1,9 km/h (1 Bft) 0 min 7,7 km/h (2 Bft)
01.09.2009 20:22 22,2 C 17,5 C 0,0 UV-I 0,0 C 66 % 90 % 0 % 1012,2 hPa 0,0 l/m 2,2 km/h (1 Bft) 0 min 2,4 km/h (1 Bft)
01.09.2009 20:24 22,3 C 17,4 C 0,0 UV-I 0,0 C 66 % 89 % 0 % 1012,2 hPa 0,0 l/m 1,9 km/h (1 Bft) 0 min 2,4 km/h (1 Bft)
01.09.2009 20:26 22,2 C 17,4 C 0,0 UV-I 0,0 C 66 % 90 % 0 % 1012,2 hPa 0,0 l/m 1,7 km/h (1 Bft) 0 min 0,0 km/h (0 Bft)
01.09.2009 20:28 22,3 C 17,4 C 0,0 UV-I 0,0 C 66 % 89 % 0 % 1012,2 hPa 0,0 l/m 1,7 km/h (1 Bft) 0 min 0,0 km/h (0 Bft)
01.09.2009 20:34 22,3 C 17,4 C 0,0 UV-I 0,0 C 66 % 89 % 0 % 1012,2 hPa 0,0 l/m 0,7 km/h (0 Bft) 0 min 0,0 km/h (0 Bft)
01.09.2009 20:36 22,3 C 17,4 C 0,0 UV-I 0,0 C 66 % 89 % 0 % 1012,1 hPa 0,0 l/m 0,7 km/h (0 Bft) 0 min 2,4 km/h (1 Bft)
01.09.2009 20:38 22,2 C 17,3 C 0,0 UV-I 0,0 C 66 % 90 % 0 % 1012,1 hPa 0,0 l/m 1,0 km/h (0 Bft) 0 min 3,6 km/h (1 Bft)
01.09.2009 20:40 22,2 C 17,3 C 0,0 UV-I 0,0 C 66 % 90 % 0 % 1012,1 hPa 0,0 l/m 1,0 km/h (0 Bft) 0 min 3,6 km/h (1 Bft)
01.09.2009 20:44 22,2 C 17,3 C 0,0 UV-I 0,0 C 66 % 90 % 0 % 1012,1 hPa 0,0 l/m 1,7 km/h (1 Bft) 0 min 0,0 km/h (0 Bft)
01.09.2009 20:46 22,2 C 17,3 C 0,0 UV-I 0,0 C 66 % 90 % 0 % 1012,1 hPa 0,0 l/m 1,7 km/h (1 Bft) 0 min 2,4 km/h (1 Bft)
01.09.2009 20:48 22,2 C 17,3 C 0,0 UV-I 0,0 C 66 % 90 % 0 % 1012,1 hPa 0,0 l/m 1,9 km/h (1 Bft) 0 min 0,0 km/h (0 Bft)
01.09.2009 20:50 22,2 C 17,3 C 0,0 UV-I 0,0 C 66 % 90 % 0 % 1012,1 hPa 0,0 l/m 1,7 km/h (1 Bft) 0 min 2,9 km/h (1 Bft)
01.09.2009 20:52 22,2 C 17,3 C 0,0 UV-I 0,0 C 66 % 90 % 0 % 1012,1 hPa 0,0 l/m 1,7 km/h (1 Bft) 0 min 5,5 km/h (1 Bft)
01.09.2009 20:56 22,2 C 17,2 C 0,0 UV-I 0,0 C 66 % 90 % 0 % 1012,4 hPa 0,0 l/m 1,4 km/h (1 Bft) 0 min 5,5 km/h (1 Bft)
01.09.2009 21:04 22,2 C 17,2 C 0,0 UV-I 0,0 C 66 % 90 % 0 % 1012,4 hPa 0,0 l/m 0,7 km/h (0 Bft) 0 min 0,0 km/h (0 Bft)
01.09.2009 21:10 22,2 C 17,2 C 0,0 UV-I 0,0 C 66 % 90 % 0 % 1012,4 hPa 0,0 l/m 0,5 km/h (0 Bft) 0 min 6,0 km/h (2 Bft)
01.09.2009 21:14 22,1 C 17,2 C 0,0 UV-I 0,0 C 66 % 90 % 0 % 1012,4 hPa 0,0 l/m 0,7 km/h (0 Bft) 0 min 0,0 km/h (0 Bft)
01.09.2009 21:16 22,2 C 17,2 C 0,0 UV-I 0,0 C 66 % 90 % 0 % 1013,1 hPa 0,0 l/m 0,5 km/h (0 Bft) 0 min 0,0 km/h (0 Bft)
01.09.2009 21:20 22,1 C 17,3 C 0,0 UV-I 0,0 C 66 % 90 % 0 % 1013,1 hPa 0,0 l/m 0,0 km/h (0 Bft) 0 min 0,0 km/h (0 Bft)
01.09.2009 21:22 22,2 C 17,3 C 0,0 UV-I 0,0 C 66 % 90 % 0 % 1013,1 hPa 0,0 l/m 0,0 km/h (0 Bft) 0 min 0,0 km/h (0 Bft)
01.09.2009 21:24 22,2 C 17,3 C 0,0 UV-I 0,0 C 66 % 90 % 0 % 1013,1 hPa 0,0 l/m 0,0 km/h (0 Bft) 0 min 0,0 km/h (0 Bft)
01.09.2009 21:29 22,2 C 17,2 C 0,0 UV-I 0,0 C 67 % 91 % 0 % 1013,1 hPa 0,0 l/m 0,0 km/h (0 Bft) 0 min 0,0 km/h (0 Bft)
01.09.2009 21:34 22,2 C 17,2 C 0,0 UV-I 0,0 C 66 % 91 % 0 % 1013,1 hPa 0,0 l/m 0,0 km/h (0 Bft) 0 min 0,0 km/h (0 Bft)
01.09.2009 21:38 22,2 C 17,2 C 0,0 UV-I 0,0 C 67 % 91 % 0 % 1013,1 hPa 0,0 l/m 0,0 km/h (0 Bft) 0 min 0,0 km/h (0 Bft)
01.09.2009 21:40 22,2 C 17,2 C 0,0 UV-I 0,0 C 67 % 91 % 0 % 1013,1 hPa 0,0 l/m 0,0 km/h (0 Bft) 0 min 0,0 km/h (0 Bft)
01.09.2009 21:42 22,2 C 17,2 C 0,0 UV-I 0,0 C 67 % 91 % 0 % 1013,1 hPa 0,0 l/m 0,0 km/h (0 Bft) 0 min 0,0 km/h (0 Bft)
01.09.2009 21:44 22,2 C 17,2 C 0,0 UV-I 0,0 C 67 % 91 % 0 % 1013,1 hPa 0,0 l/m 0,0 km/h (0 Bft) 0 min 0,0 km/h (0 Bft)
01.09.2009 21:46 22,2 C 17,2 C 0,0 UV-I 0,0 C 67 % 91 % 0 % 1013,1 hPa 0,0 l/m 0,0 km/h (0 Bft) 0 min 0,0 km/h (0 Bft)
01.09.2009 21:48 22,2 C 17,2 C 0,0 UV-I 0,0 C 67 % 91 % 0 % 1013,1 hPa 0,0 l/m 0,0 km/h (0 Bft) 0 min 0,0 km/h (0 Bft)
01.09.2009 21:50 22,2 C 17,2 C 0,0 UV-I 0,0 C 67 % 91 % 0 % 1013,1 hPa 0,0 l/m 0,0 km/h (0 Bft) 0 min 0,0 km/h (0 Bft)
01.09.2009 21:52 22,2 C 17,1 C 0,0 UV-I 0,0 C 67 % 91 % 0 % 1013,1 hPa 0,0 l/m 0,0 km/h (0 Bft) 0 min 0,0 km/h (0 Bft)
01.09.2009 21:54 22,2 C 17,1 C 0,0 UV-I 0,0 C 67 % 91 % 0 % 1013,1 hPa 0,0 l/m 0,0 km/h (0 Bft) 0 min 0,0 km/h (0 Bft)
01.09.2009 21:56 22,2 C 17,1 C 0,0 UV-I 0,0 C 67 % 91 % 0 % 1013,1 hPa 0,0 l/m 0,0 km/h (0 Bft) 0 min 0,0 km/h (0 Bft)
01.09.2009 21:58 22,2 C 17,1 C 0,0 UV-I 0,0 C 67 % 91 % 0 % 1013,1 hPa 0,0 l/m 0,0 km/h (0 Bft) 0 min 0,0 km/h (0 Bft)
01.09.2009 22:00 22,2 C 17,1 C 0,0 UV-I 0,0 C 66 % 91 % 0 % 1013,1 hPa 0,0 l/m 0,0 km/h (0 Bft) 0 min 0,0 km/h (0 Bft)
01.09.2009 22:02 22,2 C 17,1 C 0,0 UV-I 0,0 C 67 % 91 % 0 % 1013,1 hPa 0,0 l/m 0,0 km/h (0 Bft) 0 min 0,0 km/h (0 Bft)
01.09.2009 22:04 22,2 C 17,1 C 0,0 UV-I 0,0 C 67 % 91 % 0 % 1013,1 hPa 0,0 l/m 0,0 km/h (0 Bft) 0 min 0,0 km/h (0 Bft)
01.09.2009 22:06 22,2 C 17,1 C 0,0 UV-I 0,0 C 67 % 91 % 0 % 1013,1 hPa 0,0 l/m 0,2 km/h (0 Bft) 0 min 3,8 km/h (1 Bft)
01.09.2009 22:08 22,2 C 17,1 C 0,0 UV-I 0,0 C 67 % 91 % 0 % 1013,1 hPa 0,0 l/m 0,2 km/h (0 Bft) 0 min 3,8 km/h (1 Bft)
01.09.2009 22:10 22,2 C 17,1 C 0,0 UV-I 0,0 C 67 % 91 % 0 % 1013,1 hPa 0,0 l/m 0,2 km/h (0 Bft) 0 min 0,0 km/h (0 Bft)
01.09.2009 22:12 22,2 C 17,1 C 0,0 UV-I 0,0 C 67 % 91 % 0 % 1013,1 hPa 0,0 l/m 0,5 km/h (0 Bft) 0 min 0,0 km/h (0 Bft)
01.09.2009 22:14 22,2 C 17,0 C 0,0 UV-I 0,0 C 67 % 91 % 0 % 1013,1 hPa 0,0 l/m 0,5 km/h (0 Bft) 0 min 0,0 km/h (0 Bft)
01.09.2009 22:16 22,2 C 17,1 C 0,0 UV-I 0,0 C 67 % 91 % 0 % 1013,2 hPa 0,0 l/m 0,5 km/h (0 Bft) 0 min 0,0 km/h (0 Bft)
01.09.2009 22:18 22,2 C 17,0 C 0,0 UV-I 0,0 C 67 % 91 % 0 % 1013,2 hPa 0,0 l/m 0,2 km/h (0 Bft) 0 min 0,0 km/h (0 Bft)
01.09.2009 22:20 22,2 C 17,0 C 0,0 UV-I 0,0 C 67 % 91 % 0 % 1013,2 hPa 0,0 l/m 0,2 km/h (0 Bft) 0 min 0,0 km/h (0 Bft)
01.09.2009 22:22 22,1 C 17,0 C 0,0 UV-I 0,0 C 67 % 91 % 0 % 1013,2 hPa 0,0 l/m 0,2 km/h (0 Bft) 0 min 3,8 km/h (1 Bft)
01.09.2009 22:24 22,2 C 17,1 C 0,0 UV-I 0,0 C 67 % 91 % 0 % 1013,2 hPa 0,0 l/m 0,2 km/h (0 Bft) 0 min 3,8 km/h (1 Bft)
01.09.2009 22:26 22,2 C 17,1 C 0,0 UV-I 0,0 C 67 % 91 % 0 % 1013,2 hPa 0,0 l/m 0,2 km/h (0 Bft) 0 min 2,9 km/h (1 Bft)
01.09.2009 22:28 22,1 C 17,1 C 0,0 UV-I 0,0 C 67 % 91 % 0 % 1013,2 hPa 0,0 l/m 0,2 km/h (0 Bft) 0 min 2,9 km/h (1 Bft)
01.09.2009 22:30 22,1 C 17,1 C 0,0 UV-I 0,0 C 67 % 91 % 0 % 1013,2 hPa 0,0 l/m 0,2 km/h (0 Bft) 0 min 0,0 km/h (0 Bft)
01.09.2009 22:32 22,1 C 17,0 C 0,0 UV-I 0,0 C 67 % 91 % 0 % 1013,2 hPa 0,0 l/m 0,5 km/h (0 Bft) 0 min 0,0 km/h (0 Bft)
01.09.2009 22:34 22,1 C 17,0 C 0,0 UV-I 0,0 C 67 % 91 % 0 % 1013,2 hPa 0,0 l/m 0,2 km/h (0 Bft) 0 min 0,0 km/h (0 Bft)
01.09.2009 22:36 22,1 C 16,9 C 0,0 UV-I 0,0 C 67 % 91 % 0 % 1013,2 hPa 0,0 l/m 0,2 km/h (0 Bft) 0 min 2,9 km/h (1 Bft)
01.09.2009 22:38 22,1 C 16,9 C 0,0 UV-I 0,0 C 67 % 91 % 0 % 1013,2 hPa 0,0 l/m 0,2 km/h (0 Bft) 0 min 2,9 km/h (1 Bft)
01.09.2009 22:40 22,1 C 16,9 C 0,0 UV-I 0,0 C 67 % 91 % 0 % 1013,2 hPa 0,0 l/m 0,2 km/h (0 Bft) 0 min 0,0 km/h (0 Bft)
01.09.2009 22:42 22,1 C 16,9 C 0,0 UV-I 0,0 C 67 % 92 % 0 % 1013,2 hPa 0,0 l/m 0,2 km/h (0 Bft) 0 min 0,0 km/h (0 Bft)
01.09.2009 22:44 22,1 C 16,9 C 0,0 UV-I 0,0 C 67 % 92 % 0 % 1013,2 hPa 0,0 l/m 0,2 km/h (0 Bft) 0 min 0,0 km/h (0 Bft)
01.09.2009 22:46 22,1 C 16,9 C 0,0 UV-I 0,0 C 67 % 91 % 0 % 1013,2 hPa 0,0 l/m 0,5 km/h (0 Bft) 0 min 0,0 km/h (0 Bft)
01.09.2009 22:48 22,1 C 16,8 C 0,0 UV-I 0,0 C 67 % 92 % 0 % 1013,2 hPa 0,0 l/m 0,7 km/h (0 Bft) 0 min 0,0 km/h (0 Bft)
01.09.2009 22:50 22,1 C 16,8 C 0,0 UV-I 0,0 C 67 % 92 % 0 % 1013,2 hPa 0,0 l/m 0,7 km/h (0 Bft) 0 min 4,3 km/h (1 Bft)
01.09.2009 22:52 22,1 C 16,8 C 0,0 UV-I 0,0 C 67 % 92 % 0 % 1013,2 hPa 0,0 l/m 1,2 km/h (1 Bft) 0 min 5,5 km/h (1 Bft)
01.09.2009 22:54 22,1 C 16,9 C 0,0 UV-I 0,0 C 67 % 92 % 0 % 1013,2 hPa 0,0 l/m 1,4 km/h (1 Bft) 0 min 5,5 km/h (1 Bft)
01.09.2009 22:56 22,1 C 16,9 C 0,0 UV-I 0,0 C 67 % 92 % 0 % 1013,9 hPa 0,0 l/m 1,2 km/h (1 Bft) 0 min 0,0 km/h (0 Bft)
01.09.2009 22:58 22,1 C 16,8 C 0,0 UV-I 0,0 C 67 % 92 % 0 % 1013,9 hPa 0,0 l/m 1,0 km/h (0 Bft) 0 min 0,0 km/h (0 Bft)
01.09.2009 23:00 22,0 C 16,7 C 0,0 UV-I 0,0 C 67 % 92 % 0 % 1013,9 hPa 0,0 l/m 1,2 km/h (1 Bft) 0 min 3,4 km/h (1 Bft)
01.09.2009 23:02 22,0 C 16,7 C 0,0 UV-I 0,0 C 67 % 92 % 0 % 1013,9 hPa 0,0 l/m 1,0 km/h (0 Bft) 0 min 3,4 km/h (1 Bft)
01.09.2009 23:04 22,0 C 16,7 C 0,0 UV-I 0,0 C 67 % 92 % 0 % 1013,9 hPa 0,0 l/m 0,5 km/h (0 Bft) 0 min 2,4 km/h (1 Bft)
01.09.2009 23:06 22,0 C 16,7 C 0,0 UV-I 0,0 C 67 % 92 % 0 % 1013,9 hPa 0,0 l/m 0,7 km/h (0 Bft) 0 min 4,6 km/h (1 Bft)
01.09.2009 23:08 22,0 C 16,7 C 0,0 UV-I 0,0 C 67 % 92 % 0 % 1013,9 hPa 0,0 l/m 1,0 km/h (0 Bft) 0 min 4,6 km/h (1 Bft)
01.09.2009 23:10 22,0 C 16,6 C 0,0 UV-I 0,0 C 67 % 91 % 0 % 1013,9 hPa 0,0 l/m 1,0 km/h (0 Bft) 0 min 2,9 km/h (1 Bft)
01.09.2009 23:12 22,0 C 16,7 C 0,0 UV-I 0,0 C 67 % 92 % 0 % 1013,9 hPa 0,0 l/m 0,7 km/h (0 Bft) 0 min 2,6 km/h (1 Bft)
01.09.2009 23:14 22,0 C 16,7 C 0,0 UV-I 0,0 C 66 % 92 % 0 % 1013,9 hPa 0,0 l/m 0,7 km/h (0 Bft) 0 min 2,6 km/h (1 Bft)
01.09.2009 23:16 22,0 C 16,7 C 0,0 UV-I 0,0 C 67 % 91 % 0 % 1013,8 hPa 0,0 l/m 0,5 km/h (0 Bft) 0 min 0,0 km/h (0 Bft)
01.09.2009 23:18 22,0 C 16,6 C 0,0 UV-I 0,0 C 66 % 91 % 0 % 1013,8 hPa 0,0 l/m 0,5 km/h (0 Bft) 0 min 2,6 km/h (1 Bft)
01.09.2009 23:20 22,0 C 16,5 C 0,0 UV-I 0,0 C 66 % 91 % 0 % 1013,8 hPa 0,0 l/m 0,5 km/h (0 Bft) 0 min 4,8 km/h (1 Bft)
01.09.2009 23:22 22,0 C 16,5 C 0,0 UV-I 0,0 C 66 % 91 % 0 % 1013,8 hPa 0,0 l/m 1,0 km/h (0 Bft) 0 min 4,8 km/h (1 Bft)
01.09.2009 23:24 22,0 C 16,5 C 0,0 UV-I 0,0 C 66 % 91 % 0 % 1013,8 hPa 0,0 l/m 1,0 km/h (0 Bft) 0 min 4,3 km/h (1 Bft)
01.09.2009 23:26 22,0 C 16,5 C 0,0 UV-I 0,0 C 66 % 91 % 0 % 1013,8 hPa 0,0 l/m 1,2 km/h (1 Bft) 0 min 6,5 km/h (2 Bft)
01.09.2009 23:28 22,0 C 16,5 C 0,0 UV-I 0,0 C 66 % 91 % 0 % 1013,8 hPa 0,0 l/m 2,2 km/h (1 Bft) 0 min 7,0 km/h (2 Bft)
01.09.2009 23:30 21,9 C 16,5 C 0,0 UV-I 0,0 C 66 % 91 % 0 % 1013,8 hPa 0,0 l/m 2,2 km/h (1 Bft) 0 min 7,0 km/h (2 Bft)
01.09.2009 23:32 22,0 C 16,5 C 0,0 UV-I 0,0 C 66 % 91 % 0 % 1013,8 hPa 0,0 l/m 2,2 km/h (1 Bft) 0 min 5,8 km/h (2 Bft)
01.09.2009 23:34 21,9 C 16,5 C 0,0 UV-I 0,0 C 66 % 91 % 0 % 1013,8 hPa 0,0 l/m 2,2 km/h (1 Bft) 0 min 6,3 km/h (2 Bft)
01.09.2009 23:36 21,9 C 16,5 C 0,0 UV-I 0,0 C 66 % 91 % 0 % 1013,6 hPa 0,0 l/m 2,4 km/h (1 Bft) 0 min 6,3 km/h (2 Bft)
01.09.2009 23:38 21,9 C 16,4 C 0,0 UV-I 0,0 C 66 % 91 % 0 % 1013,6 hPa 0,0 l/m 1,9 km/h (1 Bft) 0 min 4,8 km/h (1 Bft)
01.09.2009 23:40 21,9 C 16,4 C 0,0 UV-I 0,0 C 66 % 91 % 0 % 1013,6 hPa 0,0 l/m 1,4 km/h (1 Bft) 0 min 0,0 km/h (0 Bft)
01.09.2009 23:42 21,9 C 16,4 C 0,0 UV-I 0,0 C 66 % 91 % 0 % 1013,6 hPa 0,0 l/m 1,7 km/h (1 Bft) 0 min 6,7 km/h (2 Bft)
01.09.2009 23:44 21,9 C 16,5 C 0,0 UV-I 0,0 C 66 % 91 % 0 % 1013,6 hPa 0,0 l/m 1,2 km/h (1 Bft) 0 min 6,7 km/h (2 Bft)
01.09.2009 23:46 21,9 C 16,4 C 0,0 UV-I 0,0 C 66 % 91 % 0 % 1013,6 hPa 0,0 l/m 1,0 km/h (0 Bft) 0 min 0,0 km/h (0 Bft)
01.09.2009 23:48 21,9 C 16,4 C 0,0 UV-I 0,0 C 66 % 91 % 0 % 1013,6 hPa 0,0 l/m 1,2 km/h (1 Bft) 0 min 0,0 km/h (0 Bft)
01.09.2009 23:50 21,9 C 16,5 C 0,0 UV-I 0,0 C 66 % 91 % 0 % 1013,6 hPa 0,0 l/m 1,4 km/h (1 Bft) 0 min 5,1 km/h (1 Bft)
01.09.2009 23:52 21,9 C 16,4 C 0,0 UV-I 0,0 C 66 % 91 % 0 % 1013,6 hPa 0,0 l/m 1,7 km/h (1 Bft) 0 min 5,3 km/h (1 Bft)
01.09.2009 23:54 21,8 C 16,4 C 0,0 UV-I 0,0 C 66 % 91 % 0 % 1013,6 hPa 0,0 l/m 1,9 km/h (1 Bft) 0 min 5,3 km/h (1 Bft)
01.09.2009 23:56 21,8 C 16,4 C 0,0 UV-I 0,0 C 66 % 91 % 0 % 1013,6 hPa 0,0 l/m 1,9 km/h (1 Bft) 0 min 3,4 km/h (1 Bft)
01.09.2009 23:58 21,8 C 16,4 C 0,0 UV-I 0,0 C 66 % 91 % 0 % 1013,6 hPa 0,0 l/m 1,7 km/h (1 Bft) 0 min 3,4 km/h (1 Bft)
_ Min-Zeit 23:54 04:42 00:00 00:00 00:08 00:00 00:00 06:36 - 01:36 - 00:14
Minimum _ 21,8 C 16,4 C 0,0 UV-I 0,0 C 46 % 54 % 0 % 1008,2 hPa - 0,0 km/h (0 Bft) - 0,0 km/h (0 Bft)
_ Max-Zeit 00:00 10:58 12:38 10:02 21:29 22:42 09:52 22:56 14:08 10:04 09:46 10:22
Maximum _ 23,4 C 23,3 C 3,9 UV-I 5,1 C 67 % 92 % 100 % 1013,9 hPa 0,1 l/m 9,4 km/h
O-NO (2 Bft)
2 min 25,7 km/h
O-NO (4 Bft)
Durchschnitt _ 22,7 C 18,6 C 0,2 UV-I 0,2 C 55 % 72 % 5 % 1011,2 hPa #0,6 l/m 1,8 km/h (1 Bft) #24 min. 4,0 km/h (1 Bft)
© 2012 W. Hausmann